GFSSGP_prec_precacc_126.txt.gz
Total_Precipitation_Accumulation
0.00 0.00 0.00 0.00 0.00 0.00 0.00 0.00 0.00 0.02 0.04 0.05 0.09 0.11 0.17 0.22 0.38 0.90 1.00 1.23 1.97 1.61 1.09 1.15 1.28 0.66 0.30 0.10 0.03 0.01 0.00 0.01 0.00 0.00 0.00 0.01 0.01 0.00 0.01 0.01 0.01 0.01 0.02 0.04 0.04 0.11 0.12 0.08 0.03
0.00 0.00 0.00 0.00 0.00 0.00 0.00 0.00 0.02 0.06 0.15 0.24 0.22 0.26 0.34 0.60 0.42 0.35 0.68 0.91 0.96 1.05 0.70 1.40 1.48 1.14 0.79 0.44 0.16 0.04 0.01 0.01 0.00 0.00 0.04 0.04 0.04 0.07 0.04 0.03 0.02 0.03 0.05 0.07 0.04 0.10 0.13 0.05 0.01
0.00 0.00 0.00 0.00 0.00 0.00 0.00 0.00 0.01 0.06 0.11 0.15 0.16 0.16 0.26 0.69 0.99 0.63 0.63 0.88 1.20 1.00 0.51 0.91 1.32 1.38 1.02 0.60 0.36 0.16 0.07 0.03 0.01 0.01 0.02 0.00 0.03 0.04 0.10 0.13 0.02 0.03 0.12 0.19 0.15 0.21 0.11 0.02 0.00
0.00 0.00 0.00 0.00 0.00 0.00 0.00 0.03 0.04 0.07 0.12 0.12 0.13 0.24 0.40 0.73 1.03 0.56 0.52 1.11 1.53 1.33 0.98 0.91 1.46 1.78 2.22 1.41 0.76 0.42 0.20 0.05 0.05 0.05 0.01 0.04 0.05 0.15 0.39 0.40 0.19 0.20 0.24 0.33 0.32 0.30 0.07 0.00 0.00
0.00 0.00 0.00 0.00 0.00 0.01 0.00 0.03 0.18 0.34 0.41 0.36 0.17 0.12 0.46 0.65 0.81 1.27 1.53 1.92 2.18 2.24 2.01 1.35 2.10 2.88 4.08 4.60 3.34 2.23 1.26 0.75 0.50 0.50 0.63 0.44 0.32 0.69 0.59 0.40 0.43 0.36 0.32 0.33 0.49 0.35 0.04 0.00 0.00
0.00 0.00 0.00 0.00 0.00 0.00 0.01 0.05 0.16 0.39 0.41 0.23 0.10 0.16 0.84 0.63 0.54 1.20 2.00 2.86 3.51 3.15 2.80 2.71 2.25 2.70 3.63 5.96 6.17 5.52 5.61 3.44 1.61 1.20 1.15 1.14 0.96 0.71 0.43 0.37 0.53 0.28 0.20 0.33 0.27 0.09 0.02 0.00 0.00
0.00 0.00 0.00 0.00 0.00 0.01 0.02 0.15 0.35 0.21 0.08 0.14 0.26 0.53 0.90 0.74 0.71 1.16 1.96 2.71 3.69 5.65 5.53 4.88 3.86 2.98 2.28 2.98 4.30 4.64 4.16 4.48 3.89 2.75 1.81 2.34 1.74 1.20 0.59 0.42 0.51 0.71 0.63 0.47 0.13 0.15 0.17 0.06 0.12
0.00 0.00 0.00 0.00 0.00 0.04 0.09 0.16 0.18 0.08 0.19 0.62 0.28 0.51 1.25 1.25 0.87 1.30 2.79 3.11 4.63 8.06 7.51 5.82 4.85 3.14 1.52 1.88 2.17 2.50 3.79 2.73 2.29 3.12 2.74 2.11 1.52 1.17 0.94 0.82 0.83 0.85 0.79 0.99 1.16 0.96 0.84 0.53 0.36
0.00 0.00 0.00 0.00 0.02 0.13 0.21 0.32 0.22 0.08 0.04 0.30 0.54 0.94 1.18 0.82 0.62 1.06 2.01 3.09 3.79 6.02 6.49 6.28 4.35 2.99 1.51 0.99 1.09 1.10 2.21 2.80 2.38 1.22 2.04 2.08 1.51 1.18 1.06 1.02 1.10 1.44 1.34 1.22 0.77 0.54 0.36 0.34 0.32
0.00 0.00 0.00 0.00 0.01 0.12 0.16 0.03 0.15 0.24 0.16 0.39 0.91 1.20 0.77 0.45 0.61 0.83 0.95 1.52 2.19 3.37 3.56 5.22 4.46 3.08 2.19 1.64 1.18 0.78 1.11 2.00 2.61 1.60 1.02 1.31 1.16 0.85 0.65 0.73 0.76 0.84 1.03 0.88 0.74 0.62 0.42 0.33 0.28
0.00 0.00 0.00 0.00 0.01 0.11 0.03 0.01 0.03 0.08 0.25 0.76 1.55 1.68 0.86 0.56 0.65 0.91 0.82 0.68 0.74 1.24 1.56 2.37 3.61 4.12 3.14 1.91 1.38 0.74 0.86 1.57 2.60 2.31 0.97 0.94 1.03 0.88 0.54 0.43 0.52 0.54 0.77 0.78 0.96 0.76 0.49 0.28 0.20
0.00 0.00 0.00 0.00 0.00 0.02 0.05 0.07 0.06 0.31 0.75 0.42 0.36 0.51 0.68 0.79 0.61 0.65 0.78 0.34 0.37 0.71 0.94 1.84 2.25 2.26 2.56 2.71 1.60 0.82 0.51 1.12 1.86 2.35 1.02 0.90 0.73 0.83 0.37 0.13 0.23 0.34 0.33 0.46 0.97 1.01 0.61 0.44 0.36
0.00 0.00 0.00 0.01 0.01 0.01 0.01 0.06 0.11 0.25 0.10 0.07 0.18 0.29 0.52 0.58 0.45 0.23 0.26 0.24 0.41 0.46 0.69 1.30 1.15 0.91 1.07 1.85 2.46 1.41 0.91 0.99 1.54 2.16 0.96 0.51 0.43 0.60 0.33 0.12 0.15 0.18 0.13 0.26 0.45 0.68 0.57 0.43 0.37
0.00 0.00 0.00 0.02 0.00 0.00 0.00 0.23 0.18 0.54 0.16 0.08 0.05 0.18 0.41 0.34 0.38 0.37 0.32 0.14 0.21 0.38 0.57 0.92 0.74 0.81 0.80 1.09 1.75 2.00 1.39 1.43 1.67 1.67 1.03 0.61 0.41 0.36 0.32 0.17 0.16 0.13 0.12 0.20 0.37 0.62 0.61 0.55 0.37
0.00 0.00 0.00 0.00 0.01 0.01 0.04 0.22 0.14 0.13 0.10 0.06 0.02 0.06 0.16 0.09 0.30 0.27 0.09 0.14 0.22 0.41 0.62 1.01 1.26 0.62 0.82 0.94 1.19 1.68 1.46 1.25 1.54 1.74 1.46 0.95 0.65 0.31 0.31 0.30 0.32 0.19 0.12 0.21 0.42 0.60 0.76 0.63 0.51
0.00 0.00 0.00 0.00 0.01 0.02 0.11 0.51 0.05 0.05 0.03 0.03 0.02 0.03 0.03 0.09 0.10 0.03 0.04 0.09 0.17 0.37 0.45 0.95 1.52 0.94 0.85 0.85 1.02 1.30 1.34 1.22 1.04 1.23 1.49 1.28 1.06 0.64 0.42 0.36 0.48 0.43 0.24 0.20 0.30 0.46 0.80 0.59 0.41
0.00 0.00 0.00 0.00 0.00 0.01 0.05 0.35 0.22 0.07 0.08 0.05 0.01 0.00 0.00 0.00 0.01 0.03 0.04 0.04 0.08 0.22 0.33 0.72 1.02 1.17 1.13 0.91 0.93 0.87 0.86 1.09 0.77 0.89 0.93 1.13 1.57 1.38 0.67 0.47 0.49 0.52 0.44 0.32 0.26 0.38 0.53 0.54 0.42
0.00 0.00 0.00 0.02 0.07 0.00 0.00 0.03 0.16 0.19 0.07 0.04 0.01 0.00 0.00 0.00 0.00 0.03 0.08 0.04 0.04 0.17 0.43 0.85 0.92 1.07 1.07 0.77 0.64 0.61 0.71 0.78 0.83 0.76 0.77 0.97 1.07 1.01 0.98 0.92 0.86 0.71 0.57 0.39 0.26 0.40 0.50 0.40 0.46
0.00 0.00 0.00 0.00 0.00 0.00 0.00 0.00 0.02 0.14 0.04 0.02 0.03 0.01 0.01 0.00 0.01 0.04 0.07 0.08 0.06 0.12 0.37 0.48 0.71 0.88 0.60 0.38 0.33 0.37 0.42 0.50 0.83 0.84 0.55 0.77 0.98 0.93 0.79 0.82 1.00 1.15 0.80 0.52 0.35 0.43 0.54 0.64 0.47
0.00 0.00 0.00 0.00 0.00 0.00 0.00 0.00 0.00 0.02 0.00 0.00 0.00 0.00 0.00 0.00 0.00 0.01 0.03 0.05 0.08 0.16 0.38 0.47 0.32 0.27 0.28 0.28 0.16 0.12 0.17 0.29 0.63 0.95 0.69 0.72 0.81 0.76 0.88 0.67 0.68 0.81 0.98 1.04 0.65 0.53 0.71 0.75 0.69
0.00 0.00 0.00 0.00 0.00 0.00 0.00 0.00 0.00 0.00 0.02 0.07 0.01 0.00 0.00 0.00 0.02 0.02 0.04 0.04 0.06 0.08 0.12 0.24 0.13 0.07 0.07 0.10 0.13 0.11 0.16 0.32 1.03 1.33 1.00 0.74 0.78 0.75 0.79 0.73 0.65 0.64 1.06 1.07 0.76 0.46 0.51 0.77 0.74
0.00 0.00 0.00 0.00 0.00 0.00 0.00 0.01 0.02 0.01 0.02 0.06 0.01 0.01 0.00 0.00 0.00 0.00 0.00 0.00 0.03 0.03 0.05 0.23 0.13 0.06 0.05 0.05 0.05 0.07 0.11 0.16 0.50 1.03 0.94 0.74 1.02 0.95 0.80 0.92 0.96 0.80 0.62 0.71 0.62 0.52 0.52 1.01 0.78
0.01 0.00 0.00 0.00 0.00 0.05 0.02 0.01 0.03 0.02 0.00 0.02 0.01 0.00 0.00 0.00 0.01 0.01 0.01 0.00 0.00 0.06 0.08 0.20 0.16 0.16 0.08 0.11 0.15 0.26 0.20 0.14 0.23 0.89 1.22 0.98 0.99 1.17 1.18 1.12 1.24 1.21 1.27 0.89 1.13 0.90 0.81 0.98 0.71
0.00 0.02 0.04 0.03 0.04 0.07 0.01 0.02 0.04 0.03 0.02 0.06 0.08 0.05 0.02 0.02 0.03 0.04 0.02 0.02 0.02 0.02 0.11 0.19 0.15 0.21 0.23 0.27 0.22 0.22 0.29 0.18 0.18 0.51 1.07 1.37 1.22 1.23 1.22 1.19 1.17 1.05 1.08 1.21 1.39 1.66 1.53 1.47 1.22
0.01 0.12 0.26 0.27 0.11 0.05 0.03 0.04 0.06 0.07 0.18 0.31 0.31 0.26 0.14 0.11 0.10 0.09 0.06 0.06 0.07 0.05 0.17 0.19 0.16 0.20 0.23 0.30 0.16 0.19 0.31 0.39 0.41 0.43 0.79 1.30 1.62 1.44 0.94 1.03 1.02 0.93 0.75 0.85 1.15 1.55 1.69 1.98 1.94
0.05 0.18 0.28 0.36 0.16 0.07 0.04 0.04 0.05 0.13 0.20 0.37 0.61 0.47 0.38 0.24 0.11 0.16 0.16 0.18 0.21 0.20 0.22 0.34 0.30 0.37 0.28 0.19 0.25 0.31 0.37 0.45 0.54 0.46 0.67 1.19 1.12 0.95 0.73 0.90 1.06 1.03 1.02 1.02 0.93 1.07 1.09 1.14 1.49
0.22 0.18 0.09 0.38 0.27 0.27 0.10 0.04 0.12 0.23 0.33 0.30 0.43 0.43 0.38 0.32 0.20 0.19 0.21 0.24 0.28 0.30 0.29 0.32 0.29 0.48 0.47 0.42 0.47 0.41 0.33 0.30 0.35 0.40 0.39 0.62 0.81 0.94 0.88 1.01 1.06 1.10 1.01 1.01 1.00 0.92 0.95 0.97 0.94
0.22 0.22 0.45 0.60 0.55 0.34 0.21 0.31 0.99 0.98 0.67 0.95 0.83 0.49 0.36 0.31 0.30 0.27 0.27 0.31 0.32 0.34 0.35 0.48 0.33 0.26 0.40 0.57 0.57 0.38 0.42 0.50 0.36 0.33 0.34 0.48 0.77 0.88 1.07 1.18 1.12 1.15 1.17 1.19 1.17 1.08 1.00 1.08 0.95
0.22 0.41 0.51 0.50 0.20 0.31 0.56 1.40 1.44 1.74 1.12 0.85 0.47 0.37 0.40 0.31 0.37 0.53 0.61 0.51 0.57 0.56 0.54 0.58 0.62 0.72 0.76 0.72 0.57 0.49 0.57 0.82 0.74 0.62 0.55 0.56 0.87 1.12 1.09 1.16 1.38 1.27 1.40 1.41 1.40 1.28 1.15 1.14 1.12
0.18 0.27 0.50 0.77 0.43 0.32 0.53 1.43 1.34 1.22 1.12 0.57 0.10 0.03 0.08 0.24 0.27 0.41 0.95 1.10 1.05 1.04 1.14 0.93 0.88 1.01 1.09 0.94 0.83 1.04 1.20 1.28 1.22 1.19 1.32 1.07 0.84 0.82 0.78 0.94 1.07 1.03 1.23 1.42 1.40 1.28 1.14 1.14 1.31

GFSSGP_prec_precacc_129.txt.gz
Total_Precipitation_Accumulation
0.00 0.00 0.00 0.00 0.00 0.00 0.00 0.00 0.00 0.02 0.04 0.05 0.09 0.11 0.17 0.22 0.38 0.90 1.00 1.23 1.97 1.61 1.09 1.15 1.28 0.66 0.30 0.10 0.03 0.01 0.00 0.01 0.00 0.00 0.00 0.01 0.01 0.00 0.01 0.01 0.02 0.01 0.02 0.04 0.04 0.11 0.12 0.08 0.03
0.00 0.00 0.00 0.00 0.00 0.00 0.00 0.00 0.02 0.06 0.15 0.24 0.22 0.26 0.34 0.60 0.42 0.35 0.68 0.91 0.96 1.05 0.70 1.40 1.48 1.14 0.79 0.44 0.16 0.04 0.01 0.01 0.00 0.00 0.04 0.04 0.04 0.07 0.04 0.03 0.02 0.04 0.06 0.07 0.04 0.10 0.13 0.05 0.01
0.00 0.00 0.00 0.00 0.00 0.00 0.00 0.00 0.01 0.06 0.11 0.15 0.16 0.16 0.26 0.69 0.99 0.63 0.63 0.88 1.20 1.00 0.51 0.91 1.32 1.38 1.02 0.60 0.36 0.16 0.07 0.03 0.01 0.01 0.02 0.00 0.03 0.04 0.10 0.13 0.02 0.03 0.12 0.19 0.15 0.22 0.11 0.02 0.00
0.00 0.00 0.00 0.00 0.00 0.00 0.00 0.03 0.04 0.07 0.12 0.12 0.13 0.24 0.40 0.73 1.03 0.56 0.52 1.11 1.53 1.33 0.98 0.91 1.46 1.78 2.22 1.41 0.76 0.42 0.20 0.05 0.05 0.05 0.01 0.04 0.05 0.15 0.39 0.40 0.19 0.20 0.24 0.33 0.32 0.30 0.07 0.00 0.00
0.00 0.00 0.00 0.00 0.00 0.01 0.00 0.03 0.18 0.34 0.41 0.36 0.17 0.12 0.46 0.65 0.81 1.27 1.53 1.92 2.18 2.24 2.01 1.35 2.10 2.88 4.08 4.60 3.34 2.23 1.26 0.75 0.50 0.50 0.63 0.44 0.32 0.69 0.59 0.40 0.43 0.36 0.32 0.33 0.49 0.35 0.04 0.00 0.00
0.00 0.00 0.00 0.00 0.00 0.00 0.01 0.05 0.16 0.39 0.41 0.23 0.10 0.16 0.84 0.63 0.54 1.20 2.00 2.86 3.51 3.15 2.80 2.71 2.25 2.70 3.63 5.96 6.17 5.52 5.61 3.44 1.61 1.20 1.15 1.14 0.96 0.71 0.43 0.37 0.53 0.28 0.20 0.33 0.27 0.09 0.02 0.00 0.00
0.00 0.00 0.00 0.00 0.00 0.01 0.02 0.15 0.35 0.21 0.08 0.14 0.26 0.53 0.90 0.74 0.71 1.16 1.96 2.71 3.69 5.65 5.53 4.88 3.86 2.98 2.28 2.98 4.30 4.64 4.16 4.48 3.89 2.75 1.81 2.34 1.74 1.20 0.59 0.42 0.51 0.71 0.63 0.47 0.13 0.15 0.17 0.06 0.12
0.00 0.00 0.00 0.00 0.00 0.04 0.09 0.16 0.18 0.08 0.19 0.62 0.28 0.51 1.25 1.25 0.87 1.30 2.79 3.11 4.63 8.06 7.51 5.82 4.85 3.14 1.52 1.88 2.18 2.50 3.79 2.73 2.29 3.12 2.74 2.11 1.52 1.17 0.94 0.82 0.83 0.85 0.79 0.99 1.16 0.96 0.84 0.53 0.36
0.00 0.00 0.00 0.00 0.02 0.13 0.21 0.32 0.22 0.08 0.04 0.30 0.54 0.94 1.18 0.82 0.62 1.06 2.01 3.09 3.79 6.02 6.49 6.29 4.35 2.99 1.51 0.99 1.10 1.10 2.21 2.80 2.38 1.22 2.04 2.08 1.51 1.18 1.06 1.02 1.10 1.44 1.34 1.22 0.77 0.54 0.36 0.34 0.32
0.00 0.00 0.00 0.00 0.01 0.12 0.16 0.03 0.15 0.24 0.16 0.39 0.91 1.20 0.77 0.45 0.61 0.83 0.95 1.52 2.19 3.37 3.57 5.25 4.48 3.09 2.19 1.64 1.18 0.78 1.11 2.00 2.61 1.60 1.02 1.31 1.16 0.85 0.65 0.73 0.76 0.84 1.03 0.88 0.74 0.62 0.42 0.33 0.28
0.00 0.00 0.00 0.00 0.01 0.11 0.03 0.01 0.03 0.08 0.25 0.76 1.55 1.68 0.86 0.56 0.65 0.91 0.82 0.68 0.74 1.24 1.56 2.39 3.63 4.15 3.15 1.92 1.38 0.74 0.86 1.58 2.61 2.31 0.97 0.94 1.03 0.88 0.54 0.43 0.52 0.54 0.77 0.78 0.96 0.76 0.49 0.28 0.20
0.00 0.00 0.00 0.00 0.00 0.02 0.05 0.07 0.06 0.31 0.75 0.42 0.36 0.51 0.68 0.79 0.61 0.65 0.78 0.34 0.37 0.71 0.94 1.85 2.26 2.27 2.58 2.72 1.60 0.83 0.54 1.14 1.87 2.35 1.03 0.91 0.74 0.83 0.37 0.13 0.23 0.34 0.33 0.46 0.97 1.01 0.61 0.44 0.36
0.00 0.00 0.00 0.01 0.01 0.01 0.01 0.06 0.11 0.25 0.10 0.07 0.18 0.29 0.52 0.58 0.45 0.23 0.26 0.24 0.41 0.46 0.69 1.30 1.15 0.91 1.07 1.85 2.46 1.41 0.96 1.10 1.61 2.17 0.97 0.54 0.46 0.61 0.34 0.12 0.15 0.18 0.13 0.26 0.45 0.68 0.57 0.43 0.37
0.00 0.00 0.00 0.02 0.00 0.00 0.00 0.23 0.18 0.54 0.16 0.08 0.05 0.18 0.41 0.34 0.38 0.37 0.32 0.14 0.21 0.38 0.57 0.92 0.74 0.81 0.80 1.09 1.75 2.00 1.40 1.45 1.77 1.80 1.08 0.78 0.59 0.56 0.40 0.19 0.16 0.13 0.12 0.21 0.37 0.62 0.61 0.55 0.37
0.00 0.00 0.00 0.00 0.01 0.01 0.04 0.22 0.14 0.13 0.10 0.06 0.02 0.06 0.16 0.09 0.30 0.27 0.09 0.14 0.22 0.41 0.62 1.01 1.26 0.62 0.82 0.94 1.19 1.68 1.46 1.26 1.60 1.93 1.67 1.09 0.93 0.54 0.54 0.44 0.39 0.23 0.14 0.22 0.42 0.60 0.76 0.63 0.51
0.00 0.00 0.00 0.00 0.01 0.02 0.11 0.51 0.05 0.05 0.03 0.03 0.02 0.03 0.03 0.09 0.10 0.03 0.04 0.09 0.17 0.37 0.45 0.95 1.52 0.94 0.85 0.85 1.02 1.30 1.34 1.22 1.06 1.27 1.57 1.42 1.25 1.05 0.82 0.54 0.56 0.57 0.39 0.29 0.34 0.47 0.80 0.59 0.41
0.00 0.00 0.00 0.00 0.00 0.01 0.05 0.35 0.22 0.07 0.08 0.05 0.01 0.00 0.00 0.00 0.01 0.03 0.04 0.04 0.08 0.22 0.33 0.72 1.02 1.17 1.13 0.91 0.93 0.87 0.86 1.09 0.77 0.89 0.94 1.18 1.67 1.72 1.32 1.16 1.03 0.85 0.66 0.47 0.38 0.45 0.57 0.54 0.42
0.00 0.00 0.00 0.02 0.07 0.00 0.00 0.03 0.16 0.19 0.07 0.04 0.01 0.00 0.00 0.00 0.00 0.03 0.08 0.04 0.04 0.17 0.43 0.85 0.92 1.07 1.07 0.77 0.64 0.61 0.71 0.78 0.83 0.76 0.77 0.97 1.08 1.05 1.14 1.35 1.46 1.25 1.00 0.63 0.42 0.49 0.59 0.45 0.47
0.00 0.00 0.00 0.00 0.00 0.00 0.00 0.00 0.02 0.14 0.04 0.02 0.03 0.01 0.01 0.00 0.01 0.04 0.07 0.08 0.06 0.12 0.37 0.48 0.71 0.88 0.60 0.38 0.33 0.37 0.42 0.50 0.83 0.84 0.55 0.77 0.98 0.94 0.84 1.13 1.97 2.12 1.29 0.84 0.68 0.69 0.73 0.80 0.62
0.00 0.00 0.00 0.00 0.00 0.00 0.00 0.00 0.00 0.02 0.00 0.00 0.00 0.00 0.00 0.00 0.00 0.01 0.03 0.05 0.08 0.16 0.38 0.47 0.32 0.27 0.28 0.28 0.16 0.12 0.17 0.29 0.63 0.95 0.69 0.72 0.81 0.76 0.88 0.69 0.82 1.39 1.67 1.41 0.92 0.81 1.01 0.96 0.95
0.00 0.00 0.00 0.00 0.00 0.00 0.00 0.00 0.00 0.00 0.02 0.07 0.01 0.00 0.00 0.00 0.02 0.02 0.04 0.04 0.06 0.08 0.12 0.24 0.13 0.07 0.07 0.10 0.13 0.11 0.16 0.32 1.03 1.33 1.00 0.74 0.78 0.75 0.79 0.74 0.67 0.81 1.47 1.50 1.06 0.65 0.69 0.98 0.94
0.00 0.00 0.00 0.00 0.00 0.00 0.00 0.01 0.02 0.01 0.02 0.06 0.01 0.01 0.00 0.00 0.00 0.00 0.00 0.00 0.03 0.03 0.05 0.23 0.13 0.06 0.05 0.05 0.05 0.07 0.11 0.16 0.50 1.03 0.94 0.74 1.02 0.95 0.80 0.92 0.96 0.82 0.80 1.14 1.06 0.78 0.66 1.14 0.90
0.01 0.00 0.00 0.00 0.00 0.05 0.02 0.01 0.03 0.02 0.00 0.02 0.01 0.00 0.00 0.00 0.01 0.01 0.01 0.00 0.00 0.06 0.08 0.20 0.16 0.16 0.08 0.11 0.15 0.26 0.20 0.14 0.23 0.89 1.22 0.98 0.99 1.17 1.18 1.12 1.24 1.22 1.28 0.95 1.42 1.27 1.12 1.20 0.89
0.00 0.02 0.04 0.03 0.04 0.07 0.01 0.02 0.04 0.03 0.02 0.06 0.08 0.05 0.02 0.02 0.03 0.04 0.02 0.02 0.02 0.02 0.11 0.19 0.15 0.21 0.23 0.27 0.22 0.22 0.29 0.18 0.18 0.51 1.07 1.37 1.22 1.23 1.22 1.19 1.17 1.05 1.09 1.22 1.43 1.76 1.72 1.70 1.39
0.01 0.12 0.26 0.27 0.11 0.05 0.03 0.04 0.06 0.07 0.18 0.31 0.31 0.26 0.14 0.11 0.10 0.09 0.06 0.06 0.07 0.05 0.17 0.19 0.16 0.20 0.23 0.30 0.16 0.19 0.31 0.39 0.41 0.43 0.79 1.30 1.62 1.44 0.94 1.03 1.02 0.93 0.75 0.85 1.15 1.56 1.74 2.06 2.03
0.05 0.18 0.28 0.36 0.16 0.07 0.04 0.04 0.05 0.13 0.20 0.37 0.61 0.47 0.38 0.24 0.11 0.16 0.16 0.18 0.21 0.20 0.22 0.34 0.30 0.37 0.28 0.19 0.25 0.31 0.37 0.45 0.54 0.46 0.67 1.19 1.12 0.95 0.73 0.90 1.06 1.03 1.02 1.02 0.93 1.07 1.10 1.17 1.54
0.22 0.18 0.09 0.38 0.27 0.27 0.10 0.04 0.12 0.23 0.33 0.30 0.43 0.43 0.38 0.32 0.20 0.19 0.21 0.24 0.28 0.30 0.29 0.33 0.30 0.49 0.48 0.43 0.47 0.41 0.34 0.31 0.36 0.41 0.39 0.62 0.82 0.94 0.88 1.01 1.06 1.10 1.01 1.01 1.00 0.92 0.96 0.98 0.99
0.22 0.22 0.45 0.60 0.55 0.34 0.21 0.31 0.99 0.98 0.67 0.95 0.83 0.49 0.36 0.31 0.30 0.27 0.27 0.31 0.32 0.34 0.35 0.49 0.34 0.29 0.44 0.60 0.58 0.39 0.43 0.51 0.37 0.35 0.35 0.50 0.78 0.90 1.08 1.19 1.13 1.15 1.17 1.19 1.17 1.08 1.00 1.08 0.96
0.22 0.41 0.51 0.50 0.20 0.31 0.56 1.40 1.44 1.74 1.12 0.85 0.47 0.37 0.40 0.31 0.37 0.53 0.61 0.51 0.57 0.56 0.54 0.63 0.71 0.79 0.79 0.72 0.57 0.50 0.59 0.84 0.77 0.65 0.58 0.60 0.90 1.15 1.11 1.18 1.39 1.28 1.41 1.42 1.41 1.29 1.15 1.14 1.13
0.18 0.27 0.50 0.77 0.43 0.32 0.53 1.43 1.34 1.22 1.12 0.57 0.10 0.03 0.08 0.24 0.27 0.41 0.95 1.10 1.05 1.05 1.18 0.99 0.91 1.01 1.09 0.95 0.83 1.06 1.25 1.33 1.26 1.24 1.37 1.11 0.88 0.85 0.81 0.96 1.09 1.04 1.23 1.42 1.41 1.28 1.14 1.15 1.34

GFSSGP_prec_precacc_132.txt.gz
Total_Precipitation_Accumulation
0.00 0.00 0.00 0.00 0.00 0.00 0.00 0.00 0.00 0.02 0.04 0.05 0.09 0.11 0.17 0.22 0.38 0.90 1.00 1.23 1.97 1.61 1.09 1.15 1.28 0.66 0.30 0.10 0.03 0.01 0.00 0.01 0.00 0.00 0.00 0.01 0.01 0.00 0.01 0.01 0.02 0.01 0.02 0.04 0.04 0.11 0.12 0.08 0.03
0.00 0.00 0.00 0.00 0.00 0.00 0.00 0.00 0.02 0.06 0.15 0.24 0.22 0.26 0.34 0.60 0.42 0.35 0.68 0.91 0.96 1.05 0.70 1.40 1.48 1.14 0.79 0.44 0.16 0.04 0.01 0.01 0.00 0.00 0.04 0.04 0.04 0.07 0.04 0.03 0.02 0.04 0.06 0.07 0.04 0.10 0.13 0.05 0.01
0.00 0.00 0.00 0.00 0.00 0.00 0.00 0.00 0.01 0.06 0.11 0.15 0.16 0.16 0.26 0.69 0.99 0.63 0.63 0.88 1.20 1.00 0.51 0.91 1.32 1.38 1.02 0.60 0.36 0.16 0.07 0.03 0.01 0.01 0.02 0.00 0.03 0.04 0.10 0.13 0.02 0.03 0.12 0.19 0.15 0.22 0.11 0.02 0.00
0.00 0.00 0.00 0.00 0.00 0.00 0.00 0.03 0.04 0.07 0.12 0.12 0.13 0.24 0.40 0.73 1.03 0.56 0.52 1.11 1.53 1.33 0.98 0.91 1.46 1.78 2.22 1.41 0.76 0.42 0.20 0.05 0.05 0.05 0.01 0.04 0.05 0.15 0.39 0.40 0.19 0.20 0.24 0.33 0.32 0.30 0.07 0.00 0.00
0.00 0.00 0.00 0.00 0.00 0.01 0.00 0.03 0.18 0.34 0.41 0.36 0.17 0.12 0.46 0.65 0.81 1.27 1.53 1.92 2.18 2.24 2.01 1.35 2.10 2.88 4.08 4.60 3.34 2.23 1.26 0.75 0.50 0.50 0.63 0.44 0.32 0.69 0.59 0.40 0.43 0.36 0.32 0.33 0.49 0.35 0.04 0.00 0.00
0.00 0.00 0.00 0.00 0.00 0.00 0.01 0.05 0.16 0.39 0.41 0.23 0.10 0.16 0.84 0.63 0.54 1.20 2.00 2.86 3.51 3.15 2.80 2.71 2.25 2.70 3.63 5.96 6.17 5.52 5.61 3.44 1.61 1.20 1.15 1.14 0.96 0.71 0.43 0.37 0.53 0.28 0.20 0.34 0.27 0.09 0.02 0.00 0.00
0.00 0.00 0.00 0.00 0.00 0.01 0.02 0.15 0.35 0.21 0.08 0.14 0.26 0.53 0.90 0.74 0.71 1.16 1.96 2.71 3.69 5.65 5.53 4.88 3.86 2.98 2.28 2.98 4.30 4.64 4.16 4.48 3.89 2.75 1.81 2.34 1.74 1.20 0.59 0.42 0.51 0.71 0.63 0.47 0.13 0.15 0.17 0.06 0.12
0.00 0.00 0.00 0.00 0.00 0.04 0.09 0.16 0.18 0.08 0.19 0.62 0.28 0.51 1.25 1.25 0.87 1.30 2.79 3.11 4.63 8.06 7.51 5.82 4.85 3.14 1.52 1.89 2.19 2.53 3.83 2.74 2.29 3.12 2.74 2.11 1.52 1.17 0.94 0.82 0.83 0.85 0.79 0.99 1.16 0.96 0.84 0.53 0.36
0.00 0.00 0.00 0.00 0.02 0.13 0.21 0.32 0.22 0.08 0.04 0.30 0.54 0.94 1.18 0.82 0.62 1.06 2.01 3.09 3.79 6.02 6.49 6.29 4.35 3.00 1.52 0.99 1.10 1.11 2.28 2.87 2.38 1.22 2.04 2.08 1.51 1.18 1.06 1.02 1.10 1.44 1.34 1.22 0.77 0.54 0.36 0.34 0.32
0.00 0.00 0.00 0.00 0.01 0.12 0.16 0.03 0.15 0.24 0.16 0.39 0.91 1.20 0.77 0.45 0.61 0.83 0.95 1.52 2.19 3.37 3.57 5.25 4.49 3.10 2.20 1.65 1.18 0.78 1.12 2.04 2.65 1.64 1.03 1.32 1.16 0.85 0.65 0.73 0.76 0.84 1.03 0.88 0.74 0.62 0.42 0.33 0.28
0.00 0.00 0.00 0.00 0.01 0.11 0.03 0.01 0.03 0.08 0.25 0.76 1.55 1.68 0.86 0.56 0.65 0.91 0.82 0.68 0.74 1.24 1.56 2.39 3.63 4.15 3.15 1.92 1.38 0.74 0.86 1.59 2.64 2.37 1.05 0.98 1.06 0.90 0.54 0.43 0.52 0.54 0.77 0.78 0.96 0.76 0.49 0.28 0.20
0.00 0.00 0.00 0.00 0.00 0.02 0.05 0.07 0.06 0.31 0.75 0.42 0.36 0.51 0.68 0.79 0.61 0.65 0.78 0.34 0.37 0.71 0.94 1.85 2.26 2.27 2.58 2.72 1.61 0.83 0.55 1.16 1.90 2.38 1.08 0.99 0.82 0.91 0.42 0.14 0.23 0.34 0.33 0.46 0.97 1.01 0.61 0.44 0.36
0.00 0.00 0.00 0.01 0.01 0.01 0.01 0.06 0.11 0.25 0.10 0.07 0.18 0.29 0.52 0.58 0.45 0.23 0.26 0.24 0.41 0.46 0.69 1.30 1.15 0.91 1.07 1.85 2.46 1.41 0.97 1.13 1.66 2.25 1.07 0.64 0.54 0.68 0.41 0.17 0.17 0.19 0.14 0.26 0.46 0.69 0.57 0.43 0.37
0.00 0.00 0.00 0.02 0.00 0.00 0.00 0.23 0.18 0.54 0.16 0.08 0.05 0.18 0.41 0.34 0.38 0.37 0.32 0.14 0.21 0.38 0.57 0.92 0.74 0.81 0.80 1.09 1.75 2.00 1.40 1.45 1.78 1.84 1.17 0.91 0.73 0.65 0.51 0.27 0.23 0.18 0.15 0.21 0.38 0.63 0.62 0.56 0.37
0.00 0.00 0.00 0.00 0.01 0.01 0.04 0.22 0.14 0.13 0.10 0.06 0.02 0.06 0.16 0.09 0.30 0.27 0.09 0.14 0.22 0.41 0.62 1.01 1.26 0.62 0.82 0.94 1.19 1.68 1.46 1.26 1.60 1.94 1.70 1.17 1.00 0.66 0.69 0.60 0.51 0.36 0.25 0.26 0.45 0.64 0.83 0.66 0.52
0.00 0.00 0.00 0.00 0.01 0.02 0.11 0.51 0.05 0.05 0.03 0.03 0.02 0.03 0.03 0.09 0.10 0.03 0.04 0.09 0.17 0.37 0.45 0.95 1.52 0.94 0.85 0.85 1.02 1.30 1.34 1.22 1.06 1.27 1.57 1.42 1.27 1.11 0.93 0.70 0.76 0.85 0.68 0.46 0.41 0.52 0.89 0.66 0.45
0.00 0.00 0.00 0.00 0.00 0.01 0.05 0.35 0.22 0.07 0.08 0.05 0.01 0.00 0.00 0.00 0.01 0.03 0.04 0.04 0.08 0.22 0.33 0.72 1.02 1.17 1.13 0.91 0.93 0.87 0.86 1.09 0.77 0.89 0.94 1.18 1.67 1.72 1.33 1.24 1.33 1.27 1.28 1.16 0.76 0.56 0.65 0.62 0.49
0.00 0.00 0.00 0.02 0.07 0.00 0.00 0.03 0.16 0.19 0.07 0.04 0.01 0.00 0.00 0.00 0.00 0.03 0.08 0.04 0.04 0.17 0.43 0.85 0.92 1.07 1.07 0.77 0.64 0.61 0.71 0.78 0.83 0.76 0.77 0.97 1.08 1.05 1.14 1.36 1.60 1.59 1.46 1.19 0.96 0.84 0.75 0.59 0.62
0.00 0.00 0.00 0.00 0.00 0.00 0.00 0.00 0.02 0.14 0.04 0.02 0.03 0.01 0.01 0.00 0.01 0.04 0.07 0.08 0.06 0.12 0.37 0.48 0.71 0.88 0.60 0.38 0.33 0.37 0.42 0.50 0.83 0.84 0.55 0.77 0.98 0.94 0.84 1.13 1.97 2.14 1.36 0.90 0.94 1.19 1.13 1.03 0.87
0.00 0.00 0.00 0.00 0.00 0.00 0.00 0.00 0.00 0.02 0.00 0.00 0.00 0.00 0.00 0.00 0.00 0.01 0.03 0.05 0.08 0.16 0.38 0.47 0.32 0.27 0.28 0.28 0.16 0.12 0.17 0.29 0.63 0.95 0.69 0.72 0.81 0.76 0.88 0.69 0.82 1.40 1.71 1.55 1.09 1.08 1.34 1.23 1.17
0.00 0.00 0.00 0.00 0.00 0.00 0.00 0.00 0.00 0.00 0.02 0.07 0.01 0.00 0.00 0.00 0.02 0.02 0.04 0.04 0.06 0.08 0.12 0.24 0.13 0.07 0.07 0.10 0.13 0.11 0.16 0.32 1.03 1.33 1.00 0.74 0.78 0.75 0.79 0.74 0.67 0.81 1.47 1.54 1.17 0.82 0.93 1.32 1.28
0.00 0.00 0.00 0.00 0.00 0.00 0.00 0.01 0.02 0.01 0.02 0.06 0.01 0.01 0.00 0.00 0.00 0.00 0.00 0.00 0.03 0.03 0.05 0.23 0.13 0.06 0.05 0.05 0.05 0.07 0.11 0.16 0.50 1.03 0.94 0.74 1.02 0.95 0.80 0.92 0.96 0.82 0.80 1.14 1.13 0.91 0.83 1.29 1.18
0.01 0.00 0.00 0.00 0.00 0.05 0.02 0.01 0.03 0.02 0.00 0.02 0.01 0.00 0.00 0.00 0.01 0.01 0.01 0.00 0.00 0.06 0.08 0.20 0.16 0.16 0.08 0.11 0.15 0.26 0.20 0.14 0.23 0.89 1.22 0.98 0.99 1.17 1.18 1.12 1.24 1.22 1.28 0.95 1.44 1.35 1.24 1.35 1.02
0.00 0.02 0.04 0.03 0.04 0.07 0.01 0.02 0.04 0.03 0.02 0.06 0.08 0.05 0.02 0.02 0.03 0.04 0.02 0.02 0.02 0.02 0.11 0.19 0.15 0.21 0.23 0.27 0.22 0.22 0.29 0.18 0.18 0.51 1.07 1.37 1.22 1.23 1.22 1.19 1.17 1.05 1.09 1.22 1.43 1.77 1.74 1.75 1.51
0.01 0.12 0.26 0.27 0.11 0.05 0.03 0.04 0.06 0.07 0.18 0.31 0.31 0.26 0.14 0.11 0.10 0.09 0.06 0.06 0.07 0.05 0.17 0.19 0.16 0.20 0.23 0.30 0.16 0.19 0.31 0.39 0.41 0.43 0.79 1.30 1.62 1.44 0.94 1.03 1.02 0.93 0.75 0.85 1.15 1.57 1.75 2.09 2.16
0.05 0.18 0.28 0.36 0.16 0.07 0.04 0.04 0.05 0.13 0.20 0.37 0.61 0.47 0.38 0.24 0.11 0.16 0.16 0.18 0.21 0.20 0.22 0.34 0.30 0.37 0.28 0.19 0.25 0.31 0.37 0.46 0.55 0.47 0.68 1.20 1.12 0.96 0.74 0.91 1.06 1.03 1.02 1.02 0.93 1.07 1.10 1.18 1.55
0.22 0.18 0.09 0.38 0.27 0.27 0.10 0.04 0.12 0.23 0.33 0.30 0.43 0.43 0.38 0.32 0.20 0.19 0.21 0.24 0.28 0.30 0.29 0.33 0.30 0.49 0.48 0.43 0.47 0.41 0.34 0.32 0.37 0.42 0.40 0.63 0.83 0.95 0.89 1.02 1.07 1.11 1.02 1.01 1.00 0.92 0.96 0.98 0.99
0.22 0.22 0.45 0.60 0.55 0.34 0.21 0.31 0.99 0.98 0.67 0.95 0.83 0.49 0.36 0.31 0.30 0.27 0.27 0.31 0.32 0.34 0.35 0.49 0.34 0.29 0.45 0.60 0.58 0.39 0.44 0.53 0.39 0.36 0.37 0.52 0.80 0.92 1.10 1.21 1.14 1.17 1.18 1.20 1.18 1.09 1.00 1.08 0.96
0.22 0.41 0.51 0.50 0.20 0.31 0.56 1.40 1.44 1.74 1.12 0.85 0.47 0.37 0.40 0.31 0.37 0.53 0.61 0.51 0.57 0.56 0.54 0.64 0.72 0.79 0.79 0.72 0.57 0.51 0.61 0.90 0.82 0.71 0.63 0.64 0.94 1.19 1.15 1.21 1.42 1.31 1.43 1.43 1.42 1.29 1.16 1.14 1.13
0.18 0.27 0.50 0.77 0.43 0.32 0.53 1.43 1.34 1.22 1.12 0.57 0.10 0.03 0.08 0.24 0.27 0.41 0.95 1.10 1.05 1.05 1.18 1.01 0.92 1.01 1.09 0.96 0.86 1.11 1.32 1.44 1.35 1.34 1.44 1.16 0.93 0.91 0.85 0.99 1.11 1.07 1.26 1.44 1.43 1.30 1.15 1.16 1.35

GFSSGP_prec_precacc_135.txt.gz
Total_Precipitation_Accumulation
0.00 0.00 0.00 0.00 0.00 0.00 0.00 0.00 0.00 0.02 0.04 0.05 0.09 0.11 0.17 0.22 0.38 0.90 1.00 1.23 1.97 1.61 1.09 1.15 1.28 0.66 0.30 0.10 0.03 0.01 0.00 0.01 0.00 0.00 0.00 0.01 0.01 0.00 0.01 0.01 0.02 0.01 0.02 0.04 0.04 0.11 0.12 0.08 0.03
0.00 0.00 0.00 0.00 0.00 0.00 0.00 0.00 0.02 0.06 0.15 0.24 0.22 0.26 0.34 0.60 0.42 0.35 0.68 0.91 0.96 1.05 0.70 1.40 1.48 1.14 0.79 0.44 0.16 0.04 0.01 0.01 0.00 0.00 0.04 0.04 0.04 0.07 0.04 0.03 0.02 0.04 0.06 0.07 0.04 0.10 0.13 0.05 0.01
0.00 0.00 0.00 0.00 0.00 0.00 0.00 0.00 0.01 0.06 0.11 0.15 0.16 0.16 0.26 0.69 0.99 0.63 0.63 0.88 1.20 1.00 0.51 0.91 1.32 1.38 1.02 0.60 0.36 0.16 0.07 0.03 0.01 0.01 0.02 0.00 0.03 0.04 0.10 0.13 0.02 0.03 0.12 0.19 0.15 0.22 0.11 0.02 0.00
0.00 0.00 0.00 0.00 0.00 0.00 0.00 0.03 0.04 0.07 0.12 0.12 0.13 0.24 0.40 0.73 1.03 0.56 0.52 1.11 1.53 1.33 0.98 0.91 1.46 1.78 2.22 1.41 0.76 0.42 0.20 0.05 0.05 0.05 0.01 0.04 0.05 0.15 0.39 0.40 0.19 0.20 0.24 0.33 0.32 0.30 0.07 0.00 0.00
0.00 0.00 0.00 0.00 0.00 0.01 0.00 0.03 0.18 0.34 0.41 0.36 0.17 0.12 0.46 0.65 0.81 1.27 1.53 1.92 2.18 2.24 2.01 1.35 2.10 2.88 4.08 4.60 3.34 2.23 1.26 0.75 0.50 0.50 0.63 0.44 0.32 0.69 0.59 0.40 0.43 0.36 0.32 0.33 0.49 0.35 0.04 0.00 0.00
0.00 0.00 0.00 0.00 0.00 0.00 0.01 0.05 0.16 0.39 0.41 0.23 0.10 0.16 0.84 0.63 0.54 1.20 2.00 2.86 3.51 3.15 2.80 2.71 2.25 2.70 3.63 5.96 6.17 5.52 5.61 3.44 1.61 1.20 1.15 1.14 0.97 0.74 0.44 0.37 0.53 0.29 0.20 0.34 0.27 0.09 0.02 0.00 0.00
0.00 0.00 0.00 0.00 0.00 0.01 0.02 0.15 0.35 0.21 0.08 0.14 0.26 0.53 0.90 0.74 0.71 1.16 1.96 2.71 3.69 5.65 5.53 4.88 3.86 2.98 2.28 2.98 4.30 4.65 4.21 4.53 3.90 2.75 1.81 2.35 1.78 1.22 0.59 0.42 0.52 0.75 0.65 0.48 0.13 0.15 0.17 0.06 0.12
0.00 0.00 0.00 0.00 0.00 0.04 0.09 0.16 0.18 0.08 0.19 0.62 0.28 0.51 1.25 1.25 0.87 1.30 2.79 3.11 4.63 8.06 7.51 5.82 4.85 3.14 1.53 1.89 2.19 2.56 3.88 2.84 2.41 3.20 2.76 2.12 1.57 1.21 0.94 0.83 0.85 0.88 0.80 1.00 1.17 0.96 0.84 0.53 0.36
0.00 0.00 0.00 0.00 0.02 0.13 0.21 0.32 0.22 0.08 0.04 0.30 0.54 0.94 1.18 0.82 0.62 1.06 2.01 3.09 3.79 6.02 6.49 6.29 4.35 3.00 1.52 1.00 1.11 1.12 2.29 2.92 2.47 1.31 2.12 2.11 1.51 1.19 1.08 1.02 1.11 1.45 1.34 1.22 0.77 0.54 0.36 0.34 0.32
0.00 0.00 0.00 0.00 0.01 0.12 0.16 0.03 0.15 0.24 0.16 0.39 0.91 1.20 0.77 0.45 0.61 0.83 0.95 1.52 2.19 3.37 3.57 5.25 4.49 3.10 2.20 1.65 1.18 0.78 1.13 2.05 2.68 1.72 1.11 1.38 1.21 0.87 0.68 0.78 0.80 0.88 1.06 0.90 0.75 0.62 0.42 0.33 0.28
0.00 0.00 0.00 0.00 0.01 0.11 0.03 0.01 0.03 0.08 0.25 0.76 1.55 1.68 0.86 0.56 0.65 0.91 0.82 0.68 0.74 1.24 1.56 2.39 3.63 4.15 3.15 1.92 1.38 0.74 0.86 1.59 2.65 2.40 1.10 1.06 1.19 0.99 0.58 0.44 0.54 0.55 0.79 0.80 0.98 0.76 0.49 0.28 0.20
0.00 0.00 0.00 0.00 0.00 0.02 0.05 0.07 0.06 0.31 0.75 0.42 0.36 0.51 0.68 0.79 0.61 0.65 0.78 0.34 0.37 0.71 0.94 1.85 2.26 2.27 2.58 2.72 1.61 0.83 0.55 1.16 1.90 2.40 1.10 1.04 0.87 0.97 0.46 0.18 0.26 0.37 0.35 0.47 0.98 1.02 0.61 0.44 0.36
0.00 0.00 0.00 0.01 0.01 0.01 0.01 0.06 0.11 0.25 0.10 0.07 0.18 0.29 0.52 0.58 0.45 0.23 0.26 0.24 0.41 0.46 0.69 1.30 1.15 0.91 1.07 1.85 2.46 1.41 0.97 1.13 1.66 2.26 1.11 0.73 0.61 0.72 0.44 0.21 0.21 0.23 0.17 0.30 0.48 0.72 0.58 0.43 0.37
0.00 0.00 0.00 0.02 0.00 0.00 0.00 0.23 0.18 0.54 0.16 0.08 0.05 0.18 0.41 0.34 0.38 0.37 0.32 0.14 0.21 0.38 0.57 0.92 0.74 0.81 0.80 1.09 1.75 2.00 1.40 1.45 1.78 1.84 1.17 0.92 0.75 0.70 0.57 0.37 0.31 0.25 0.22 0.31 0.49 0.72 0.65 0.58 0.38
0.00 0.00 0.00 0.00 0.01 0.01 0.04 0.22 0.14 0.13 0.10 0.06 0.02 0.06 0.16 0.09 0.30 0.27 0.09 0.14 0.22 0.41 0.62 1.01 1.26 0.62 0.82 0.94 1.19 1.68 1.46 1.26 1.60 1.94 1.70 1.17 1.00 0.66 0.71 0.69 0.63 0.50 0.40 0.42 0.60 0.79 0.90 0.71 0.56
0.00 0.00 0.00 0.00 0.01 0.02 0.11 0.51 0.05 0.05 0.03 0.03 0.02 0.03 0.03 0.09 0.10 0.03 0.04 0.09 0.17 0.37 0.45 0.95 1.52 0.94 0.85 0.85 1.02 1.30 1.34 1.22 1.06 1.27 1.57 1.42 1.27 1.11 0.93 0.70 0.77 0.89 0.77 0.67 0.81 1.03 1.46 0.89 0.52
0.00 0.00 0.00 0.00 0.00 0.01 0.05 0.35 0.22 0.07 0.08 0.05 0.01 0.00 0.00 0.00 0.01 0.03 0.04 0.04 0.08 0.22 0.33 0.72 1.02 1.17 1.13 0.91 0.93 0.87 0.86 1.09 0.77 0.89 0.94 1.18 1.67 1.72 1.33 1.24 1.33 1.27 1.29 1.36 1.60 1.80 1.92 1.45 0.87
0.00 0.00 0.00 0.02 0.07 0.00 0.00 0.03 0.16 0.19 0.07 0.04 0.01 0.00 0.00 0.00 0.00 0.03 0.08 0.04 0.04 0.17 0.43 0.85 0.92 1.07 1.07 0.77 0.64 0.61 0.71 0.78 0.83 0.76 0.77 0.97 1.08 1.05 1.14 1.36 1.60 1.59 1.46 1.19 0.99 1.09 1.24 1.23 1.05
0.00 0.00 0.00 0.00 0.00 0.00 0.00 0.00 0.02 0.14 0.04 0.02 0.03 0.01 0.01 0.00 0.01 0.04 0.07 0.08 0.06 0.12 0.37 0.48 0.71 0.88 0.60 0.38 0.33 0.37 0.42 0.50 0.83 0.84 0.55 0.77 0.98 0.94 0.84 1.13 1.97 2.14 1.36 0.90 0.94 1.21 1.21 1.09 0.95
0.00 0.00 0.00 0.00 0.00 0.00 0.00 0.00 0.00 0.02 0.00 0.00 0.00 0.00 0.00 0.00 0.00 0.01 0.03 0.05 0.08 0.16 0.38 0.47 0.32 0.27 0.28 0.28 0.16 0.12 0.17 0.29 0.63 0.95 0.69 0.72 0.81 0.76 0.88 0.69 0.82 1.40 1.71 1.55 1.09 1.08 1.34 1.23 1.18
0.00 0.00 0.00 0.00 0.00 0.00 0.00 0.00 0.00 0.00 0.02 0.07 0.01 0.00 0.00 0.00 0.02 0.02 0.04 0.04 0.06 0.08 0.12 0.24 0.13 0.07 0.07 0.10 0.13 0.11 0.16 0.32 1.03 1.33 1.00 0.74 0.78 0.75 0.79 0.74 0.67 0.81 1.47 1.54 1.17 0.82 0.94 1.32 1.29
0.00 0.00 0.00 0.00 0.00 0.00 0.00 0.01 0.02 0.01 0.02 0.06 0.01 0.01 0.00 0.00 0.00 0.00 0.00 0.00 0.03 0.03 0.05 0.23 0.13 0.06 0.05 0.05 0.05 0.07 0.11 0.16 0.50 1.03 0.94 0.74 1.02 0.95 0.80 0.92 0.96 0.82 0.80 1.14 1.13 0.91 0.83 1.30 1.19
0.01 0.00 0.00 0.00 0.00 0.05 0.02 0.01 0.03 0.02 0.00 0.02 0.01 0.00 0.00 0.00 0.01 0.01 0.01 0.00 0.00 0.06 0.08 0.20 0.16 0.16 0.08 0.11 0.15 0.26 0.20 0.14 0.23 0.89 1.22 0.98 0.99 1.17 1.18 1.12 1.24 1.22 1.28 0.95 1.44 1.35 1.24 1.36 1.04
0.00 0.02 0.04 0.03 0.04 0.07 0.01 0.02 0.04 0.03 0.02 0.06 0.08 0.05 0.02 0.02 0.03 0.04 0.02 0.02 0.02 0.02 0.11 0.19 0.15 0.21 0.23 0.27 0.22 0.22 0.29 0.18 0.19 0.51 1.07 1.37 1.22 1.23 1.22 1.19 1.17 1.05 1.09 1.22 1.43 1.77 1.74 1.75 1.52
0.01 0.12 0.26 0.27 0.11 0.05 0.03 0.04 0.06 0.07 0.18 0.31 0.31 0.26 0.14 0.11 0.10 0.09 0.06 0.06 0.07 0.05 0.17 0.19 0.16 0.20 0.23 0.30 0.16 0.19 0.31 0.39 0.42 0.44 0.80 1.31 1.62 1.44 0.94 1.03 1.02 0.93 0.75 0.85 1.15 1.57 1.75 2.09 2.17
0.05 0.18 0.28 0.36 0.16 0.07 0.04 0.04 0.05 0.13 0.20 0.37 0.61 0.47 0.38 0.24 0.11 0.16 0.16 0.18 0.21 0.20 0.22 0.34 0.30 0.37 0.28 0.19 0.25 0.31 0.37 0.46 0.56 0.48 0.69 1.21 1.13 0.96 0.74 0.91 1.07 1.03 1.02 1.02 0.93 1.07 1.10 1.18 1.55
0.22 0.18 0.09 0.38 0.27 0.27 0.10 0.04 0.12 0.23 0.33 0.30 0.43 0.43 0.38 0.32 0.20 0.19 0.21 0.24 0.28 0.30 0.29 0.33 0.30 0.49 0.48 0.43 0.47 0.41 0.34 0.33 0.38 0.43 0.41 0.64 0.84 0.97 0.90 1.03 1.08 1.11 1.03 1.02 1.00 0.93 0.96 0.98 0.99
0.22 0.22 0.45 0.60 0.55 0.34 0.21 0.31 0.99 0.98 0.67 0.95 0.83 0.49 0.36 0.31 0.30 0.27 0.27 0.31 0.32 0.34 0.35 0.49 0.34 0.29 0.45 0.60 0.58 0.39 0.44 0.55 0.42 0.40 0.42 0.56 0.84 0.95 1.13 1.23 1.17 1.19 1.20 1.21 1.18 1.09 1.00 1.09 0.96
0.22 0.41 0.51 0.50 0.20 0.31 0.56 1.40 1.44 1.74 1.12 0.85 0.47 0.37 0.40 0.31 0.37 0.53 0.61 0.51 0.57 0.56 0.54 0.64 0.72 0.79 0.79 0.72 0.58 0.53 0.66 0.97 0.89 0.79 0.71 0.70 0.99 1.24 1.19 1.26 1.47 1.35 1.46 1.46 1.45 1.32 1.17 1.15 1.14
0.18 0.27 0.50 0.77 0.43 0.32 0.53 1.43 1.34 1.22 1.12 0.57 0.10 0.03 0.08 0.24 0.27 0.41 0.95 1.10 1.05 1.05 1.18 1.01 0.92 1.01 1.09 0.96 0.89 1.21 1.43 1.51 1.41 1.41 1.52 1.23 0.98 0.94 0.89 1.04 1.16 1.11 1.29 1.47 1.45 1.32 1.18 1.19 1.38

GFSSGP_prec_precacc_138.txt.gz
Total_Precipitation_Accumulation
0.00 0.00 0.00 0.00 0.00 0.00 0.00 0.00 0.00 0.02 0.04 0.05 0.09 0.11 0.17 0.22 0.38 0.90 1.00 1.23 1.97 1.61 1.09 1.15 1.28 0.66 0.30 0.10 0.03 0.01 0.00 0.01 0.00 0.00 0.00 0.01 0.01 0.00 0.01 0.01 0.02 0.01 0.02 0.04 0.04 0.11 0.12 0.08 0.03
0.00 0.00 0.00 0.00 0.00 0.00 0.00 0.00 0.02 0.06 0.15 0.24 0.22 0.26 0.34 0.60 0.42 0.35 0.68 0.91 0.96 1.05 0.70 1.40 1.48 1.14 0.79 0.44 0.16 0.04 0.01 0.01 0.00 0.00 0.04 0.04 0.04 0.07 0.04 0.03 0.02 0.04 0.06 0.07 0.04 0.10 0.13 0.05 0.01
0.00 0.00 0.00 0.00 0.00 0.00 0.00 0.00 0.01 0.06 0.11 0.15 0.16 0.16 0.26 0.69 0.99 0.63 0.63 0.88 1.20 1.00 0.51 0.91 1.32 1.38 1.02 0.60 0.36 0.16 0.07 0.03 0.01 0.01 0.02 0.00 0.03 0.04 0.10 0.13 0.02 0.03 0.12 0.19 0.15 0.22 0.11 0.02 0.00
0.00 0.00 0.00 0.00 0.00 0.00 0.00 0.03 0.04 0.07 0.12 0.12 0.13 0.24 0.40 0.73 1.03 0.56 0.52 1.11 1.53 1.33 0.98 0.91 1.46 1.78 2.22 1.41 0.76 0.42 0.20 0.05 0.05 0.05 0.01 0.05 0.09 0.17 0.40 0.40 0.19 0.20 0.24 0.33 0.32 0.30 0.07 0.00 0.00
0.00 0.00 0.00 0.00 0.00 0.01 0.00 0.03 0.18 0.34 0.41 0.36 0.17 0.12 0.46 0.65 0.81 1.27 1.53 1.92 2.18 2.24 2.01 1.35 2.10 2.88 4.08 4.60 3.34 2.23 1.26 0.75 0.50 0.50 0.63 0.44 0.34 0.74 0.62 0.41 0.43 0.36 0.32 0.33 0.49 0.35 0.04 0.00 0.00
0.00 0.00 0.00 0.00 0.00 0.00 0.01 0.05 0.16 0.39 0.41 0.23 0.10 0.16 0.84 0.63 0.54 1.20 2.00 2.86 3.51 3.15 2.80 2.71 2.25 2.70 3.63 5.96 6.17 5.52 5.61 3.44 1.61 1.20 1.15 1.14 1.01 0.77 0.48 0.40 0.54 0.31 0.22 0.34 0.28 0.10 0.02 0.00 0.00
0.00 0.00 0.00 0.00 0.00 0.01 0.02 0.15 0.35 0.21 0.08 0.14 0.26 0.53 0.90 0.74 0.71 1.16 1.96 2.71 3.69 5.65 5.53 4.88 3.86 2.99 2.28 2.99 4.30 4.65 4.21 4.54 3.91 2.76 1.81 2.36 1.82 1.25 0.64 0.47 0.59 0.78 0.68 0.50 0.16 0.16 0.18 0.06 0.12
0.00 0.00 0.00 0.00 0.00 0.04 0.09 0.16 0.18 0.08 0.19 0.62 0.28 0.51 1.25 1.25 0.87 1.30 2.79 3.11 4.63 8.06 7.51 5.82 4.85 3.14 1.53 1.90 2.19 2.56 3.88 2.85 2.42 3.24 2.80 2.16 1.61 1.22 0.97 0.84 0.88 0.90 0.83 1.01 1.20 0.99 0.85 0.53 0.36
0.00 0.00 0.00 0.00 0.02 0.13 0.21 0.32 0.22 0.08 0.04 0.30 0.54 0.94 1.18 0.82 0.62 1.06 2.01 3.09 3.79 6.02 6.49 6.29 4.35 3.00 1.52 1.00 1.11 1.12 2.29 2.92 2.49 1.36 2.20 2.20 1.58 1.25 1.11 1.03 1.16 1.50 1.37 1.25 0.82 0.58 0.38 0.34 0.32
0.00 0.00 0.00 0.00 0.01 0.12 0.16 0.03 0.15 0.24 0.16 0.39 0.91 1.20 0.77 0.45 0.61 0.83 0.95 1.52 2.19 3.37 3.57 5.25 4.49 3.10 2.20 1.65 1.18 0.78 1.13 2.06 2.72 1.75 1.15 1.42 1.30 0.99 0.77 0.87 0.84 0.95 1.14 0.97 0.80 0.67 0.45 0.33 0.28
0.00 0.00 0.00 0.00 0.01 0.11 0.03 0.01 0.03 0.08 0.25 0.76 1.55 1.68 0.86 0.56 0.65 0.91 0.82 0.68 0.74 1.24 1.56 2.39 3.63 4.15 3.15 1.92 1.38 0.74 0.86 1.59 2.65 2.40 1.11 1.09 1.22 1.06 0.67 0.55 0.65 0.65 0.89 0.87 1.02 0.78 0.50 0.28 0.20
0.00 0.00 0.00 0.00 0.00 0.02 0.05 0.07 0.06 0.31 0.75 0.42 0.36 0.51 0.68 0.79 0.61 0.65 0.78 0.34 0.37 0.71 0.94 1.85 2.26 2.27 2.58 2.72 1.61 0.83 0.55 1.16 1.90 2.40 1.10 1.05 0.88 1.02 0.57 0.29 0.35 0.50 0.49 0.59 1.10 1.13 0.68 0.48 0.38
0.00 0.00 0.00 0.01 0.01 0.01 0.01 0.06 0.11 0.25 0.10 0.07 0.18 0.29 0.52 0.58 0.45 0.23 0.26 0.24 0.41 0.46 0.69 1.30 1.15 0.91 1.07 1.85 2.46 1.41 0.97 1.13 1.66 2.26 1.11 0.73 0.61 0.73 0.46 0.28 0.33 0.34 0.30 0.42 0.60 0.80 0.65 0.50 0.43
0.00 0.00 0.00 0.02 0.00 0.00 0.00 0.23 0.18 0.54 0.16 0.08 0.05 0.18 0.41 0.34 0.38 0.37 0.32 0.14 0.21 0.38 0.57 0.92 0.74 0.81 0.80 1.09 1.75 2.00 1.40 1.45 1.78 1.84 1.17 0.92 0.75 0.70 0.57 0.38 0.36 0.34 0.36 0.46 0.64 0.86 0.77 0.66 0.50
0.00 0.00 0.00 0.00 0.01 0.01 0.04 0.22 0.14 0.13 0.10 0.06 0.02 0.06 0.16 0.09 0.30 0.27 0.09 0.14 0.22 0.41 0.62 1.01 1.26 0.62 0.82 0.94 1.19 1.68 1.46 1.26 1.60 1.94 1.70 1.17 1.00 0.66 0.71 0.69 0.63 0.51 0.47 0.56 0.82 1.03 1.15 0.88 0.75
0.00 0.00 0.00 0.00 0.01 0.02 0.11 0.51 0.05 0.05 0.03 0.03 0.02 0.03 0.03 0.09 0.10 0.03 0.04 0.09 0.17 0.37 0.45 0.95 1.52 0.94 0.85 0.85 1.02 1.30 1.34 1.22 1.06 1.27 1.57 1.42 1.27 1.11 0.93 0.70 0.77 0.89 0.77 0.68 0.82 1.06 1.60 1.45 1.03
0.00 0.00 0.00 0.00 0.00 0.01 0.05 0.35 0.22 0.07 0.08 0.05 0.01 0.00 0.00 0.00 0.01 0.03 0.04 0.04 0.08 0.22 0.33 0.72 1.02 1.17 1.13 0.91 0.93 0.87 0.86 1.09 0.77 0.89 0.94 1.18 1.67 1.72 1.33 1.24 1.33 1.27 1.29 1.36 1.60 1.80 1.93 1.54 1.22
0.00 0.00 0.00 0.02 0.07 0.00 0.00 0.03 0.16 0.19 0.07 0.04 0.01 0.00 0.00 0.00 0.00 0.03 0.08 0.04 0.04 0.17 0.43 0.85 0.92 1.07 1.07 0.77 0.64 0.61 0.71 0.78 0.83 0.76 0.77 0.97 1.08 1.05 1.14 1.36 1.60 1.59 1.46 1.19 0.99 1.09 1.24 1.23 1.08
0.00 0.00 0.00 0.00 0.00 0.00 0.00 0.00 0.02 0.14 0.04 0.02 0.03 0.01 0.01 0.00 0.01 0.04 0.07 0.08 0.06 0.12 0.37 0.48 0.71 0.88 0.60 0.38 0.33 0.37 0.42 0.50 0.83 0.84 0.55 0.77 0.98 0.94 0.84 1.13 1.97 2.14 1.36 0.90 0.94 1.21 1.21 1.09 0.96
0.00 0.00 0.00 0.00 0.00 0.00 0.00 0.00 0.00 0.02 0.00 0.00 0.00 0.00 0.00 0.00 0.00 0.01 0.03 0.05 0.08 0.16 0.38 0.47 0.32 0.27 0.28 0.28 0.16 0.12 0.17 0.29 0.63 0.95 0.69 0.72 0.81 0.76 0.88 0.69 0.82 1.40 1.71 1.55 1.09 1.08 1.34 1.23 1.18
0.00 0.00 0.00 0.00 0.00 0.00 0.00 0.00 0.00 0.00 0.02 0.07 0.01 0.00 0.00 0.00 0.02 0.02 0.04 0.04 0.06 0.08 0.12 0.24 0.13 0.07 0.07 0.10 0.13 0.11 0.16 0.32 1.03 1.33 1.00 0.74 0.78 0.75 0.79 0.74 0.67 0.81 1.47 1.54 1.17 0.82 0.94 1.32 1.29
0.00 0.00 0.00 0.00 0.00 0.00 0.00 0.01 0.02 0.01 0.02 0.06 0.01 0.01 0.00 0.00 0.00 0.00 0.00 0.00 0.03 0.03 0.05 0.23 0.13 0.06 0.05 0.05 0.05 0.07 0.11 0.16 0.50 1.03 0.94 0.74 1.02 0.95 0.80 0.92 0.96 0.82 0.80 1.14 1.13 0.91 0.83 1.30 1.19
0.01 0.00 0.00 0.00 0.00 0.05 0.02 0.01 0.03 0.02 0.00 0.02 0.01 0.00 0.00 0.00 0.01 0.01 0.01 0.00 0.00 0.06 0.08 0.20 0.16 0.16 0.08 0.11 0.15 0.26 0.20 0.14 0.23 0.89 1.22 0.98 0.99 1.17 1.18 1.12 1.24 1.22 1.28 0.95 1.44 1.35 1.24 1.36 1.04
0.00 0.02 0.04 0.03 0.04 0.07 0.01 0.02 0.04 0.03 0.02 0.06 0.08 0.05 0.02 0.02 0.03 0.04 0.02 0.02 0.02 0.02 0.11 0.19 0.15 0.21 0.23 0.27 0.22 0.22 0.29 0.18 0.19 0.51 1.07 1.37 1.22 1.23 1.22 1.20 1.18 1.05 1.09 1.22 1.43 1.77 1.74 1.75 1.52
0.01 0.12 0.26 0.27 0.11 0.05 0.03 0.04 0.06 0.07 0.18 0.31 0.31 0.26 0.14 0.11 0.10 0.09 0.06 0.06 0.07 0.05 0.17 0.19 0.16 0.20 0.23 0.30 0.16 0.19 0.32 0.39 0.42 0.44 0.80 1.31 1.63 1.44 0.95 1.03 1.02 0.93 0.75 0.86 1.16 1.57 1.76 2.10 2.17
0.05 0.18 0.28 0.36 0.16 0.07 0.04 0.04 0.05 0.13 0.20 0.37 0.61 0.47 0.38 0.24 0.11 0.16 0.16 0.18 0.21 0.20 0.22 0.34 0.30 0.37 0.28 0.19 0.25 0.31 0.38 0.46 0.57 0.48 0.70 1.22 1.14 0.97 0.75 0.92 1.07 1.03 1.02 1.03 0.93 1.08 1.10 1.18 1.56
0.22 0.18 0.09 0.38 0.27 0.27 0.10 0.04 0.12 0.23 0.33 0.30 0.43 0.43 0.38 0.32 0.20 0.19 0.21 0.24 0.28 0.30 0.29 0.33 0.30 0.49 0.48 0.43 0.47 0.41 0.34 0.33 0.39 0.44 0.42 0.65 0.85 0.98 0.92 1.04 1.09 1.12 1.03 1.02 1.01 0.93 0.97 0.99 1.00
0.22 0.22 0.45 0.60 0.55 0.34 0.21 0.31 0.99 0.98 0.67 0.95 0.83 0.49 0.36 0.31 0.30 0.27 0.27 0.31 0.32 0.34 0.35 0.49 0.34 0.29 0.45 0.60 0.58 0.39 0.45 0.56 0.44 0.42 0.44 0.58 0.86 0.97 1.15 1.25 1.19 1.20 1.22 1.24 1.21 1.11 1.01 1.09 0.97
0.22 0.41 0.51 0.50 0.20 0.31 0.56 1.40 1.44 1.74 1.12 0.85 0.47 0.37 0.40 0.31 0.37 0.53 0.61 0.51 0.57 0.56 0.54 0.64 0.72 0.79 0.79 0.72 0.58 0.54 0.68 1.02 0.94 0.83 0.73 0.72 1.01 1.27 1.23 1.30 1.51 1.39 1.50 1.50 1.48 1.34 1.18 1.18 1.16
0.18 0.27 0.50 0.77 0.43 0.32 0.53 1.43 1.34 1.22 1.12 0.57 0.10 0.03 0.08 0.24 0.27 0.41 0.95 1.10 1.05 1.05 1.18 1.01 0.92 1.01 1.09 0.96 0.89 1.22 1.46 1.55 1.44 1.44 1.55 1.26 1.04 1.00 0.94 1.09 1.20 1.16 1.34 1.52 1.49 1.35 1.20 1.21 1.39

GFSSGP_prec_precacc_141.txt.gz
Total_Precipitation_Accumulation
0.00 0.00 0.00 0.00 0.00 0.00 0.00 0.00 0.00 0.02 0.04 0.05 0.09 0.11 0.17 0.22 0.38 0.92 1.00 1.23 1.97 1.61 1.09 1.15 1.28 0.66 0.30 0.10 0.03 0.01 0.00 0.01 0.00 0.00 0.00 0.01 0.01 0.00 0.01 0.01 0.02 0.01 0.02 0.04 0.04 0.11 0.12 0.08 0.03
0.00 0.00 0.00 0.00 0.00 0.00 0.00 0.00 0.02 0.06 0.15 0.24 0.22 0.26 0.34 0.60 0.42 0.35 0.68 0.91 0.96 1.05 0.70 1.40 1.48 1.14 0.79 0.44 0.16 0.04 0.01 0.01 0.00 0.00 0.04 0.04 0.04 0.07 0.04 0.03 0.02 0.04 0.06 0.07 0.04 0.10 0.13 0.05 0.01
0.00 0.00 0.00 0.00 0.00 0.00 0.00 0.00 0.01 0.06 0.11 0.15 0.16 0.16 0.26 0.69 0.99 0.63 0.63 0.88 1.20 1.00 0.51 0.91 1.32 1.38 1.02 0.60 0.36 0.16 0.07 0.03 0.01 0.01 0.02 0.00 0.05 0.05 0.11 0.13 0.02 0.03 0.12 0.19 0.15 0.22 0.11 0.02 0.00
0.00 0.00 0.00 0.00 0.00 0.00 0.00 0.03 0.04 0.07 0.12 0.12 0.13 0.24 0.40 0.73 1.03 0.56 0.52 1.11 1.53 1.33 0.98 0.91 1.46 1.78 2.22 1.41 0.76 0.42 0.20 0.05 0.05 0.05 0.01 0.10 0.15 0.22 0.44 0.40 0.19 0.20 0.24 0.33 0.32 0.30 0.07 0.00 0.00
0.00 0.00 0.00 0.00 0.00 0.01 0.00 0.03 0.18 0.34 0.41 0.36 0.17 0.12 0.46 0.65 0.81 1.27 1.53 1.92 2.18 2.24 2.01 1.35 2.11 2.88 4.08 4.60 3.34 2.23 1.26 0.75 0.50 0.50 0.63 0.48 0.41 0.79 0.66 0.43 0.43 0.36 0.33 0.33 0.49 0.35 0.04 0.00 0.00
0.00 0.00 0.00 0.00 0.00 0.00 0.01 0.05 0.16 0.39 0.41 0.23 0.10 0.16 0.84 0.63 0.54 1.20 2.00 2.86 3.51 3.15 2.80 2.71 2.25 2.70 3.63 5.96 6.17 5.52 5.61 3.44 1.61 1.20 1.15 1.15 1.05 0.82 0.51 0.40 0.54 0.32 0.25 0.36 0.30 0.12 0.03 0.00 0.00
0.00 0.00 0.00 0.00 0.00 0.01 0.02 0.15 0.35 0.21 0.08 0.14 0.26 0.53 0.90 0.74 0.71 1.16 1.96 2.71 3.69 5.65 5.53 4.88 3.86 2.99 2.28 2.99 4.30 4.65 4.21 4.54 3.91 2.76 1.81 2.36 1.84 1.28 0.66 0.48 0.59 0.78 0.69 0.51 0.17 0.19 0.19 0.06 0.12
0.00 0.00 0.00 0.00 0.00 0.04 0.09 0.16 0.18 0.08 0.19 0.62 0.28 0.51 1.25 1.25 0.87 1.30 2.79 3.11 4.63 8.06 7.51 5.82 4.85 3.14 1.53 1.90 2.19 2.56 3.88 2.85 2.42 3.25 2.85 2.20 1.62 1.23 0.98 0.84 0.88 0.90 0.83 1.01 1.20 1.00 0.86 0.53 0.36
0.00 0.00 0.00 0.00 0.02 0.13 0.21 0.32 0.22 0.08 0.04 0.30 0.54 0.94 1.18 0.82 0.62 1.06 2.01 3.09 3.79 6.02 6.49 6.29 4.35 3.00 1.52 1.00 1.11 1.12 2.29 2.92 2.49 1.38 2.24 2.27 1.64 1.36 1.20 1.06 1.16 1.53 1.38 1.26 0.82 0.60 0.39 0.34 0.32
0.00 0.00 0.00 0.00 0.01 0.12 0.16 0.03 0.15 0.24 0.16 0.39 0.91 1.20 0.77 0.45 0.61 0.83 0.95 1.52 2.19 3.37 3.57 5.25 4.49 3.10 2.20 1.65 1.18 0.78 1.13 2.06 2.72 1.75 1.18 1.51 1.48 1.19 1.10 1.17 1.03 1.06 1.18 0.98 0.81 0.68 0.47 0.33 0.28
0.00 0.00 0.00 0.00 0.01 0.11 0.03 0.01 0.03 0.08 0.25 0.76 1.55 1.68 0.86 0.56 0.65 0.91 0.82 0.68 0.74 1.24 1.56 2.39 3.63 4.15 3.15 1.92 1.38 0.74 0.86 1.59 2.65 2.40 1.11 1.09 1.26 1.16 0.86 0.76 0.98 0.94 1.12 0.93 1.03 0.79 0.51 0.28 0.20
0.00 0.00 0.00 0.00 0.00 0.02 0.05 0.07 0.06 0.31 0.75 0.42 0.36 0.51 0.68 0.79 0.61 0.65 0.78 0.34 0.37 0.71 0.94 1.85 2.26 2.27 2.58 2.72 1.61 0.83 0.55 1.16 1.90 2.40 1.10 1.05 0.88 1.03 0.61 0.36 0.51 0.73 0.77 0.84 1.28 1.21 0.77 0.56 0.42
0.00 0.00 0.00 0.01 0.01 0.01 0.01 0.06 0.11 0.25 0.10 0.07 0.18 0.29 0.52 0.58 0.45 0.23 0.26 0.24 0.41 0.46 0.69 1.30 1.15 0.91 1.07 1.85 2.46 1.41 0.97 1.13 1.66 2.26 1.11 0.73 0.61 0.73 0.46 0.28 0.34 0.39 0.44 0.66 0.87 1.07 0.90 0.71 0.60
0.00 0.00 0.00 0.02 0.00 0.00 0.00 0.23 0.18 0.54 0.16 0.08 0.05 0.18 0.41 0.34 0.38 0.37 0.32 0.14 0.21 0.38 0.57 0.92 0.74 0.81 0.80 1.09 1.75 2.00 1.40 1.45 1.78 1.84 1.17 0.92 0.75 0.70 0.57 0.38 0.36 0.35 0.39 0.55 0.80 1.14 1.03 0.88 0.72
0.00 0.00 0.00 0.00 0.01 0.01 0.04 0.22 0.14 0.13 0.10 0.06 0.02 0.06 0.16 0.09 0.30 0.27 0.09 0.14 0.22 0.41 0.62 1.01 1.26 0.62 0.82 0.94 1.19 1.68 1.46 1.26 1.60 1.94 1.70 1.17 1.00 0.66 0.71 0.69 0.63 0.51 0.47 0.56 0.84 1.12 1.25 1.04 0.93
0.00 0.00 0.00 0.00 0.01 0.02 0.11 0.51 0.05 0.05 0.03 0.03 0.02 0.03 0.03 0.09 0.10 0.03 0.04 0.09 0.17 0.37 0.45 0.95 1.52 0.94 0.85 0.85 1.02 1.30 1.34 1.22 1.06 1.27 1.57 1.42 1.27 1.11 0.93 0.70 0.77 0.89 0.77 0.68 0.82 1.06 1.61 1.49 1.09
0.00 0.00 0.00 0.00 0.00 0.01 0.05 0.35 0.22 0.07 0.08 0.05 0.01 0.00 0.00 0.00 0.01 0.03 0.04 0.04 0.08 0.22 0.33 0.72 1.02 1.17 1.13 0.91 0.93 0.87 0.86 1.09 0.77 0.89 0.94 1.18 1.67 1.72 1.33 1.24 1.33 1.27 1.29 1.36 1.60 1.80 1.93 1.54 1.22
0.00 0.00 0.00 0.02 0.07 0.00 0.00 0.03 0.16 0.19 0.07 0.04 0.01 0.00 0.00 0.00 0.00 0.03 0.08 0.04 0.04 0.17 0.43 0.85 0.92 1.07 1.07 0.77 0.64 0.61 0.71 0.78 0.83 0.76 0.77 0.97 1.08 1.05 1.14 1.36 1.60 1.59 1.46 1.19 0.99 1.09 1.24 1.23 1.08
0.00 0.00 0.00 0.00 0.00 0.00 0.00 0.00 0.02 0.14 0.04 0.02 0.03 0.01 0.01 0.00 0.01 0.04 0.07 0.08 0.06 0.12 0.37 0.48 0.71 0.88 0.60 0.38 0.33 0.37 0.42 0.50 0.83 0.84 0.55 0.77 0.98 0.94 0.84 1.13 1.97 2.14 1.36 0.90 0.94 1.21 1.21 1.09 0.96
0.00 0.00 0.00 0.00 0.00 0.00 0.00 0.00 0.00 0.02 0.00 0.00 0.00 0.00 0.00 0.00 0.00 0.01 0.03 0.05 0.08 0.16 0.38 0.47 0.32 0.27 0.28 0.28 0.16 0.12 0.17 0.29 0.63 0.95 0.69 0.72 0.81 0.76 0.88 0.69 0.82 1.40 1.71 1.55 1.09 1.08 1.34 1.23 1.18
0.00 0.00 0.00 0.00 0.00 0.00 0.00 0.00 0.00 0.00 0.02 0.07 0.01 0.00 0.00 0.00 0.02 0.02 0.04 0.04 0.06 0.08 0.12 0.24 0.13 0.07 0.07 0.10 0.13 0.11 0.16 0.32 1.03 1.33 1.00 0.74 0.78 0.75 0.79 0.74 0.67 0.81 1.47 1.54 1.17 0.82 0.94 1.32 1.29
0.00 0.00 0.00 0.00 0.00 0.00 0.00 0.01 0.02 0.01 0.02 0.06 0.01 0.01 0.00 0.00 0.00 0.00 0.00 0.00 0.03 0.03 0.05 0.23 0.13 0.06 0.05 0.05 0.05 0.07 0.11 0.16 0.50 1.03 0.94 0.74 1.02 0.95 0.80 0.92 0.96 0.82 0.80 1.14 1.13 0.91 0.83 1.30 1.19
0.01 0.00 0.00 0.00 0.00 0.05 0.02 0.01 0.03 0.02 0.00 0.02 0.01 0.00 0.00 0.00 0.01 0.01 0.01 0.00 0.00 0.06 0.08 0.20 0.16 0.16 0.08 0.11 0.15 0.26 0.20 0.14 0.23 0.89 1.22 0.98 0.99 1.17 1.18 1.12 1.25 1.22 1.29 0.95 1.44 1.35 1.24 1.36 1.04
0.00 0.02 0.04 0.03 0.04 0.07 0.01 0.02 0.04 0.03 0.02 0.06 0.08 0.05 0.02 0.02 0.03 0.04 0.02 0.02 0.02 0.02 0.11 0.19 0.15 0.21 0.23 0.27 0.22 0.22 0.29 0.18 0.19 0.51 1.07 1.37 1.22 1.23 1.22 1.20 1.18 1.06 1.09 1.23 1.43 1.78 1.74 1.75 1.52
0.01 0.12 0.26 0.27 0.11 0.05 0.03 0.04 0.06 0.07 0.18 0.31 0.31 0.26 0.14 0.11 0.10 0.09 0.06 0.06 0.07 0.05 0.17 0.19 0.16 0.20 0.23 0.30 0.16 0.19 0.32 0.39 0.42 0.44 0.80 1.32 1.63 1.45 0.95 1.04 1.03 0.94 0.75 0.86 1.16 1.58 1.76 2.10 2.17
0.05 0.18 0.28 0.36 0.16 0.07 0.04 0.04 0.05 0.13 0.20 0.37 0.61 0.47 0.38 0.24 0.11 0.16 0.16 0.18 0.21 0.20 0.22 0.34 0.30 0.37 0.28 0.19 0.25 0.31 0.38 0.46 0.57 0.49 0.70 1.22 1.15 0.99 0.76 0.93 1.08 1.04 1.03 1.03 0.94 1.08 1.10 1.18 1.56
0.22 0.18 0.09 0.38 0.27 0.27 0.10 0.04 0.12 0.23 0.33 0.30 0.43 0.43 0.38 0.32 0.20 0.19 0.21 0.24 0.28 0.30 0.29 0.33 0.30 0.49 0.48 0.43 0.47 0.41 0.34 0.34 0.39 0.44 0.43 0.66 0.86 0.99 0.93 1.06 1.10 1.14 1.05 1.04 1.03 0.94 0.97 0.99 1.00
0.22 0.22 0.45 0.60 0.55 0.34 0.21 0.31 0.99 0.98 0.67 0.95 0.83 0.49 0.36 0.31 0.30 0.27 0.27 0.31 0.32 0.34 0.35 0.49 0.34 0.29 0.45 0.60 0.58 0.39 0.45 0.57 0.46 0.44 0.46 0.60 0.87 0.99 1.17 1.28 1.22 1.24 1.26 1.27 1.24 1.13 1.04 1.11 0.99
0.22 0.41 0.51 0.50 0.20 0.31 0.56 1.40 1.44 1.74 1.12 0.85 0.47 0.37 0.40 0.31 0.37 0.53 0.61 0.51 0.57 0.56 0.54 0.64 0.72 0.79 0.79 0.72 0.58 0.54 0.69 1.02 0.95 0.85 0.75 0.74 1.03 1.29 1.25 1.33 1.55 1.45 1.58 1.57 1.54 1.39 1.22 1.22 1.19
0.18 0.27 0.50 0.77 0.43 0.32 0.53 1.44 1.34 1.22 1.12 0.57 0.10 0.03 0.08 0.24 0.27 0.41 0.95 1.10 1.05 1.05 1.18 1.01 0.92 1.01 1.09 0.96 0.89 1.22 1.47 1.56 1.45 1.45 1.58 1.31 1.09 1.05 0.99 1.14 1.24 1.20 1.39 1.57 1.56 1.42 1.25 1.25 1.43

GFSSGP_prec_precacc_144.txt.gz
Total_Precipitation_Accumulation
0.00 0.00 0.00 0.00 0.00 0.00 0.00 0.00 0.00 0.02 0.04 0.05 0.09 0.11 0.17 0.22 0.38 0.97 1.01 1.23 1.97 1.61 1.09 1.15 1.28 0.66 0.30 0.10 0.03 0.01 0.00 0.01 0.00 0.00 0.00 0.01 0.01 0.00 0.01 0.01 0.02 0.02 0.03 0.04 0.04 0.11 0.12 0.08 0.03
0.00 0.00 0.00 0.00 0.00 0.00 0.00 0.00 0.02 0.06 0.15 0.24 0.22 0.26 0.34 0.60 0.42 0.35 0.68 0.91 0.96 1.05 0.70 1.40 1.48 1.14 0.79 0.44 0.16 0.04 0.01 0.01 0.00 0.00 0.04 0.04 0.04 0.07 0.04 0.03 0.02 0.05 0.06 0.07 0.04 0.10 0.13 0.05 0.01
0.00 0.00 0.00 0.00 0.00 0.00 0.00 0.00 0.01 0.06 0.11 0.15 0.16 0.16 0.26 0.69 0.99 0.63 0.63 0.88 1.20 1.00 0.51 0.92 1.32 1.38 1.02 0.60 0.36 0.16 0.07 0.03 0.01 0.01 0.02 0.01 0.07 0.07 0.14 0.14 0.02 0.03 0.12 0.19 0.15 0.22 0.11 0.02 0.00
0.00 0.00 0.00 0.00 0.00 0.00 0.00 0.03 0.04 0.07 0.12 0.12 0.13 0.24 0.40 0.73 1.03 0.56 0.52 1.11 1.53 1.33 0.98 0.91 1.46 1.78 2.22 1.41 0.76 0.42 0.20 0.05 0.05 0.05 0.02 0.16 0.20 0.29 0.49 0.44 0.20 0.21 0.25 0.33 0.32 0.30 0.07 0.00 0.00
0.00 0.00 0.00 0.00 0.00 0.01 0.00 0.03 0.18 0.34 0.41 0.36 0.17 0.12 0.46 0.65 0.81 1.27 1.53 1.92 2.18 2.24 2.01 1.35 2.11 2.88 4.08 4.60 3.34 2.23 1.26 0.75 0.50 0.50 0.63 0.48 0.43 0.83 0.70 0.46 0.45 0.38 0.35 0.34 0.49 0.35 0.04 0.00 0.00
0.00 0.00 0.00 0.00 0.00 0.00 0.01 0.05 0.16 0.39 0.41 0.23 0.10 0.16 0.84 0.63 0.54 1.20 2.00 2.86 3.51 3.15 2.80 2.71 2.25 2.70 3.63 5.96 6.17 5.52 5.61 3.44 1.61 1.20 1.15 1.16 1.05 0.83 0.53 0.43 0.58 0.36 0.30 0.40 0.30 0.12 0.03 0.00 0.00
0.00 0.00 0.00 0.00 0.00 0.01 0.02 0.15 0.35 0.21 0.08 0.14 0.26 0.53 0.90 0.74 0.71 1.16 1.96 2.71 3.69 5.65 5.53 4.88 3.86 2.99 2.28 2.99 4.30 4.65 4.21 4.54 3.91 2.76 1.81 2.37 1.85 1.28 0.66 0.48 0.61 0.80 0.70 0.53 0.17 0.19 0.19 0.06 0.12
0.00 0.00 0.00 0.00 0.00 0.04 0.09 0.16 0.18 0.08 0.19 0.62 0.28 0.51 1.25 1.25 0.87 1.30 2.79 3.11 4.63 8.06 7.51 5.82 4.85 3.14 1.53 1.90 2.19 2.56 3.88 2.85 2.42 3.25 2.85 2.21 1.64 1.25 0.99 0.85 0.89 0.92 0.84 1.03 1.21 1.00 0.86 0.53 0.36
0.00 0.00 0.00 0.00 0.02 0.13 0.21 0.32 0.22 0.08 0.04 0.30 0.54 0.94 1.18 0.82 0.62 1.06 2.01 3.09 3.79 6.02 6.49 6.29 4.35 3.00 1.52 1.00 1.11 1.12 2.29 2.92 2.49 1.38 2.24 2.27 1.65 1.42 1.37 1.22 1.31 1.60 1.47 1.36 0.90 0.66 0.41 0.34 0.32
0.00 0.00 0.00 0.00 0.01 0.12 0.16 0.03 0.15 0.24 0.16 0.39 0.91 1.20 0.77 0.45 0.61 0.83 0.95 1.52 2.19 3.37 3.57 5.25 4.49 3.10 2.20 1.65 1.18 0.78 1.13 2.06 2.72 1.75 1.18 1.51 1.48 1.23 1.28 1.40 1.35 1.35 1.41 1.12 0.86 0.72 0.48 0.33 0.28
0.00 0.00 0.00 0.00 0.01 0.11 0.03 0.01 0.03 0.08 0.25 0.76 1.55 1.68 0.86 0.56 0.65 0.91 0.82 0.68 0.74 1.24 1.56 2.39 3.63 4.15 3.15 1.92 1.38 0.74 0.86 1.59 2.65 2.40 1.11 1.09 1.26 1.16 0.87 0.79 1.11 1.13 1.42 1.14 1.13 0.80 0.55 0.34 0.21
0.00 0.00 0.00 0.00 0.00 0.02 0.05 0.07 0.06 0.31 0.75 0.42 0.36 0.51 0.68 0.79 0.61 0.65 0.78 0.34 0.37 0.71 0.94 1.85 2.26 2.27 2.58 2.72 1.61 0.83 0.55 1.16 1.90 2.40 1.10 1.05 0.88 1.03 0.61 0.37 0.51 0.75 0.88 1.08 1.52 1.42 0.96 0.81 0.52
0.00 0.00 0.00 0.01 0.01 0.01 0.01 0.06 0.11 0.25 0.10 0.07 0.18 0.29 0.52 0.58 0.45 0.23 0.26 0.24 0.41 0.46 0.69 1.30 1.15 0.91 1.07 1.85 2.46 1.41 0.97 1.13 1.66 2.26 1.11 0.73 0.61 0.73 0.46 0.28 0.34 0.39 0.45 0.68 0.92 1.20 1.19 1.13 1.00
0.00 0.00 0.00 0.02 0.00 0.00 0.00 0.23 0.18 0.54 0.16 0.08 0.05 0.18 0.41 0.34 0.38 0.37 0.32 0.14 0.21 0.38 0.57 0.92 0.74 0.81 0.80 1.09 1.75 2.00 1.40 1.45 1.78 1.84 1.17 0.92 0.75 0.70 0.57 0.38 0.36 0.35 0.39 0.55 0.80 1.16 1.27 1.34 1.52
0.00 0.00 0.00 0.00 0.01 0.01 0.04 0.22 0.14 0.13 0.10 0.06 0.02 0.06 0.16 0.09 0.30 0.27 0.09 0.14 0.22 0.41 0.62 1.01 1.26 0.62 0.82 0.94 1.19 1.68 1.46 1.26 1.60 1.94 1.70 1.17 1.00 0.66 0.71 0.69 0.63 0.51 0.47 0.56 0.84 1.12 1.26 1.05 1.00
0.00 0.00 0.00 0.00 0.01 0.02 0.11 0.51 0.05 0.05 0.03 0.03 0.02 0.03 0.03 0.09 0.10 0.03 0.04 0.09 0.17 0.37 0.45 0.95 1.52 0.94 0.85 0.85 1.02 1.30 1.34 1.22 1.06 1.27 1.57 1.42 1.27 1.11 0.93 0.70 0.77 0.89 0.77 0.68 0.82 1.06 1.61 1.49 1.09
0.00 0.00 0.00 0.00 0.00 0.01 0.05 0.35 0.22 0.07 0.08 0.05 0.01 0.00 0.00 0.00 0.01 0.03 0.04 0.04 0.08 0.22 0.33 0.72 1.02 1.17 1.13 0.91 0.93 0.87 0.86 1.09 0.77 0.89 0.94 1.18 1.67 1.72 1.33 1.24 1.33 1.27 1.29 1.36 1.60 1.80 1.93 1.54 1.22
0.00 0.00 0.00 0.02 0.07 0.00 0.00 0.03 0.16 0.19 0.07 0.04 0.01 0.00 0.00 0.00 0.00 0.03 0.08 0.04 0.04 0.17 0.43 0.85 0.92 1.07 1.07 0.77 0.64 0.61 0.71 0.78 0.83 0.76 0.77 0.97 1.08 1.05 1.14 1.36 1.60 1.59 1.46 1.19 0.99 1.09 1.24 1.23 1.08
0.00 0.00 0.00 0.00 0.00 0.00 0.00 0.00 0.02 0.14 0.04 0.02 0.03 0.01 0.01 0.00 0.01 0.04 0.07 0.08 0.06 0.12 0.37 0.48 0.71 0.88 0.60 0.38 0.33 0.37 0.42 0.50 0.83 0.84 0.55 0.77 0.98 0.94 0.84 1.13 1.97 2.14 1.36 0.90 0.94 1.21 1.21 1.09 0.96
0.00 0.00 0.00 0.00 0.00 0.00 0.00 0.00 0.00 0.02 0.00 0.00 0.00 0.00 0.00 0.00 0.00 0.01 0.03 0.05 0.08 0.16 0.38 0.47 0.32 0.27 0.28 0.28 0.16 0.12 0.17 0.29 0.63 0.95 0.69 0.72 0.81 0.76 0.88 0.69 0.82 1.40 1.71 1.55 1.09 1.08 1.34 1.23 1.18
0.00 0.00 0.00 0.00 0.00 0.00 0.00 0.00 0.00 0.00 0.02 0.07 0.01 0.00 0.00 0.00 0.02 0.02 0.04 0.04 0.06 0.08 0.12 0.24 0.13 0.07 0.07 0.10 0.13 0.11 0.16 0.32 1.03 1.33 1.00 0.74 0.78 0.75 0.79 0.74 0.67 0.81 1.47 1.54 1.17 0.82 0.94 1.32 1.29
0.00 0.00 0.00 0.00 0.00 0.00 0.00 0.01 0.02 0.01 0.02 0.06 0.01 0.01 0.00 0.00 0.00 0.00 0.00 0.00 0.03 0.03 0.05 0.23 0.13 0.06 0.05 0.05 0.05 0.07 0.11 0.16 0.50 1.03 0.94 0.74 1.02 0.95 0.80 0.92 0.96 0.83 0.80 1.15 1.13 0.91 0.83 1.30 1.19
0.01 0.00 0.00 0.00 0.00 0.05 0.02 0.01 0.03 0.02 0.00 0.02 0.01 0.00 0.00 0.00 0.01 0.01 0.01 0.00 0.00 0.06 0.08 0.20 0.16 0.16 0.08 0.11 0.15 0.26 0.20 0.14 0.23 0.89 1.22 0.98 0.99 1.17 1.18 1.13 1.25 1.22 1.29 0.95 1.44 1.35 1.24 1.36 1.04
0.00 0.02 0.04 0.03 0.04 0.07 0.01 0.02 0.04 0.03 0.02 0.06 0.08 0.05 0.02 0.02 0.03 0.04 0.02 0.02 0.02 0.02 0.11 0.19 0.15 0.21 0.23 0.27 0.22 0.22 0.29 0.18 0.19 0.51 1.07 1.37 1.23 1.24 1.22 1.20 1.18 1.06 1.09 1.23 1.44 1.78 1.75 1.76 1.52
0.01 0.12 0.26 0.27 0.11 0.05 0.03 0.04 0.06 0.07 0.18 0.31 0.31 0.26 0.14 0.11 0.10 0.09 0.06 0.06 0.07 0.05 0.17 0.19 0.16 0.20 0.23 0.30 0.16 0.19 0.32 0.39 0.42 0.44 0.81 1.32 1.64 1.45 0.96 1.04 1.03 0.94 0.76 0.87 1.17 1.58 1.77 2.11 2.18
0.05 0.18 0.28 0.36 0.16 0.07 0.04 0.04 0.05 0.13 0.20 0.37 0.61 0.47 0.38 0.24 0.11 0.16 0.16 0.18 0.21 0.20 0.22 0.34 0.30 0.37 0.28 0.19 0.25 0.31 0.38 0.46 0.57 0.49 0.71 1.23 1.16 1.00 0.77 0.94 1.09 1.05 1.04 1.04 0.94 1.09 1.11 1.19 1.56
0.22 0.18 0.09 0.38 0.27 0.27 0.10 0.04 0.12 0.23 0.33 0.30 0.43 0.43 0.38 0.32 0.20 0.19 0.21 0.24 0.28 0.30 0.29 0.33 0.30 0.49 0.48 0.43 0.47 0.41 0.34 0.34 0.39 0.45 0.43 0.68 0.88 1.01 0.94 1.07 1.12 1.15 1.06 1.05 1.04 0.96 0.98 1.00 1.01
0.22 0.22 0.45 0.60 0.55 0.34 0.21 0.31 0.99 0.99 0.67 0.95 0.83 0.49 0.36 0.31 0.30 0.27 0.27 0.31 0.32 0.34 0.35 0.49 0.34 0.29 0.45 0.60 0.58 0.39 0.45 0.57 0.46 0.45 0.47 0.62 0.90 1.02 1.19 1.29 1.24 1.26 1.28 1.29 1.27 1.16 1.07 1.15 1.04
0.22 0.41 0.51 0.50 0.20 0.31 0.56 1.40 1.44 1.74 1.12 0.85 0.47 0.37 0.40 0.31 0.37 0.53 0.61 0.51 0.57 0.56 0.54 0.64 0.72 0.79 0.79 0.72 0.58 0.54 0.69 1.02 0.95 0.85 0.77 0.79 1.09 1.34 1.28 1.36 1.57 1.48 1.62 1.62 1.60 1.44 1.28 1.26 1.22
0.18 0.27 0.50 0.77 0.43 0.32 0.53 1.44 1.34 1.22 1.12 0.57 0.10 0.03 0.08 0.24 0.27 0.41 0.95 1.10 1.05 1.05 1.18 1.01 0.92 1.01 1.09 0.96 0.89 1.22 1.47 1.56 1.45 1.46 1.58 1.32 1.12 1.09 1.04 1.19 1.28 1.23 1.43 1.62 1.62 1.50 1.35 1.33 1.49

GFSSGP_prec_precacc_147.txt.gz
Total_Precipitation_Accumulation
0.00 0.00 0.00 0.00 0.00 0.00 0.00 0.00 0.00 0.02 0.04 0.05 0.09 0.11 0.17 0.22 0.39 1.00 1.35 1.41 2.00 1.61 1.09 1.15 1.28 0.66 0.30 0.10 0.03 0.01 0.00 0.01 0.00 0.00 0.00 0.01 0.01 0.00 0.01 0.01 0.02 0.02 0.03 0.04 0.04 0.11 0.12 0.08 0.03
0.00 0.00 0.00 0.00 0.00 0.00 0.00 0.00 0.02 0.06 0.15 0.24 0.22 0.26 0.34 0.60 0.43 0.36 0.77 1.01 0.96 1.05 0.70 1.40 1.48 1.14 0.79 0.44 0.16 0.04 0.01 0.01 0.00 0.00 0.04 0.04 0.04 0.07 0.04 0.03 0.02 0.05 0.07 0.07 0.04 0.10 0.13 0.05 0.01
0.00 0.00 0.00 0.00 0.00 0.00 0.00 0.00 0.01 0.06 0.11 0.15 0.16 0.16 0.26 0.69 0.99 0.67 0.68 0.90 1.20 1.02 0.51 0.92 1.32 1.38 1.02 0.60 0.36 0.16 0.07 0.03 0.01 0.01 0.02 0.01 0.07 0.08 0.16 0.15 0.02 0.03 0.13 0.20 0.17 0.22 0.11 0.02 0.00
0.00 0.00 0.00 0.00 0.00 0.00 0.00 0.03 0.04 0.07 0.12 0.12 0.13 0.24 0.40 0.73 1.03 0.56 0.52 1.11 1.53 1.33 0.98 0.91 1.46 1.78 2.22 1.42 0.76 0.42 0.20 0.05 0.05 0.05 0.02 0.16 0.20 0.30 0.50 0.45 0.23 0.23 0.25 0.35 0.33 0.31 0.07 0.00 0.00
0.00 0.00 0.00 0.00 0.00 0.01 0.00 0.03 0.18 0.34 0.41 0.36 0.17 0.12 0.46 0.65 0.81 1.27 1.53 1.92 2.18 2.24 2.01 1.35 2.11 2.88 4.08 4.60 3.34 2.23 1.26 0.75 0.50 0.50 0.63 0.48 0.43 0.83 0.71 0.47 0.47 0.43 0.38 0.36 0.50 0.36 0.04 0.00 0.00
0.00 0.00 0.00 0.00 0.00 0.00 0.01 0.05 0.16 0.39 0.41 0.23 0.10 0.16 0.84 0.65 0.56 1.21 2.01 2.86 3.51 3.15 2.80 2.71 2.25 2.70 3.63 5.96 6.17 5.52 5.61 3.44 1.61 1.20 1.15 1.16 1.05 0.83 0.53 0.44 0.62 0.40 0.33 0.43 0.30 0.12 0.03 0.00 0.00
0.00 0.00 0.00 0.00 0.00 0.01 0.02 0.15 0.35 0.21 0.08 0.14 0.26 0.53 0.90 0.74 0.71 1.16 1.96 2.71 3.69 5.65 5.53 4.88 3.86 2.99 2.28 2.99 4.30 4.65 4.21 4.54 3.91 2.76 1.81 2.37 1.85 1.28 0.66 0.49 0.63 0.82 0.75 0.57 0.19 0.19 0.19 0.06 0.12
0.00 0.00 0.00 0.00 0.00 0.04 0.09 0.16 0.18 0.08 0.19 0.62 0.28 0.51 1.25 1.25 0.87 1.30 2.79 3.11 4.63 8.06 7.51 5.82 4.85 3.14 1.53 1.90 2.19 2.56 3.88 2.85 2.42 3.25 2.85 2.21 1.64 1.26 1.03 0.89 0.92 0.94 0.86 1.04 1.23 1.02 0.87 0.53 0.36
0.00 0.00 0.00 0.00 0.02 0.13 0.21 0.32 0.22 0.08 0.04 0.30 0.54 0.94 1.18 0.82 0.62 1.06 2.01 3.09 3.79 6.02 6.49 6.29 4.35 3.00 1.52 1.00 1.11 1.12 2.29 2.92 2.49 1.38 2.24 2.27 1.65 1.42 1.38 1.24 1.33 1.62 1.48 1.36 0.91 0.67 0.44 0.36 0.33
0.00 0.00 0.00 0.00 0.01 0.12 0.16 0.03 0.15 0.24 0.16 0.39 0.91 1.20 0.77 0.45 0.61 0.83 0.95 1.52 2.19 3.37 3.57 5.25 4.49 3.10 2.20 1.65 1.18 0.78 1.13 2.06 2.72 1.75 1.18 1.51 1.48 1.23 1.28 1.41 1.36 1.37 1.41 1.13 0.86 0.73 0.55 0.46 0.31
0.00 0.00 0.00 0.00 0.01 0.11 0.03 0.01 0.03 0.08 0.25 0.76 1.55 1.68 0.86 0.56 0.65 0.91 0.82 0.68 0.74 1.24 1.56 2.39 3.63 4.15 3.15 1.92 1.38 0.74 0.86 1.59 2.65 2.40 1.11 1.09 1.26 1.16 0.87 0.79 1.11 1.13 1.46 1.16 1.13 0.80 0.59 0.47 0.30
0.00 0.00 0.00 0.00 0.00 0.02 0.05 0.07 0.06 0.31 0.75 0.42 0.36 0.51 0.68 0.79 0.61 0.65 0.78 0.34 0.37 0.71 0.94 1.85 2.26 2.27 2.58 2.72 1.61 0.83 0.55 1.16 1.90 2.40 1.10 1.05 0.88 1.03 0.61 0.37 0.51 0.75 0.88 1.08 1.53 1.44 1.04 0.94 0.63
0.00 0.00 0.00 0.01 0.01 0.01 0.01 0.06 0.11 0.25 0.10 0.07 0.18 0.29 0.52 0.58 0.45 0.23 0.26 0.24 0.41 0.46 0.69 1.30 1.15 0.91 1.07 1.85 2.46 1.41 0.97 1.13 1.66 2.26 1.11 0.73 0.61 0.73 0.46 0.28 0.34 0.39 0.45 0.68 0.92 1.20 1.20 1.23 1.17
0.00 0.00 0.00 0.02 0.00 0.00 0.00 0.23 0.18 0.54 0.16 0.08 0.05 0.18 0.41 0.34 0.38 0.37 0.32 0.14 0.21 0.38 0.57 0.92 0.74 0.81 0.80 1.09 1.75 2.00 1.40 1.45 1.78 1.84 1.17 0.92 0.75 0.70 0.57 0.38 0.36 0.35 0.39 0.55 0.80 1.16 1.27 1.34 1.52
0.00 0.00 0.00 0.00 0.01 0.01 0.04 0.22 0.14 0.13 0.10 0.06 0.02 0.06 0.16 0.09 0.30 0.27 0.09 0.14 0.22 0.41 0.62 1.01 1.26 0.62 0.82 0.94 1.19 1.68 1.46 1.26 1.60 1.94 1.70 1.17 1.00 0.66 0.71 0.69 0.63 0.51 0.47 0.56 0.84 1.12 1.26 1.05 1.00
0.00 0.00 0.00 0.00 0.01 0.02 0.11 0.51 0.05 0.05 0.03 0.03 0.02 0.03 0.03 0.09 0.10 0.03 0.04 0.09 0.17 0.37 0.45 0.95 1.52 0.94 0.85 0.85 1.02 1.30 1.34 1.22 1.06 1.27 1.57 1.42 1.27 1.11 0.93 0.70 0.77 0.89 0.77 0.68 0.82 1.06 1.61 1.49 1.09
0.00 0.00 0.00 0.00 0.00 0.01 0.05 0.35 0.22 0.07 0.08 0.05 0.01 0.00 0.00 0.00 0.01 0.03 0.04 0.04 0.08 0.22 0.33 0.72 1.02 1.17 1.13 0.91 0.93 0.87 0.86 1.09 0.77 0.89 0.94 1.18 1.67 1.72 1.33 1.24 1.33 1.27 1.29 1.36 1.60 1.80 1.93 1.54 1.22
0.00 0.00 0.00 0.02 0.07 0.00 0.00 0.03 0.16 0.19 0.07 0.04 0.01 0.00 0.00 0.00 0.00 0.03 0.08 0.04 0.04 0.17 0.43 0.85 0.92 1.07 1.07 0.77 0.64 0.61 0.71 0.78 0.83 0.76 0.77 0.97 1.08 1.05 1.14 1.36 1.60 1.59 1.46 1.19 0.99 1.09 1.24 1.23 1.08
0.00 0.00 0.00 0.00 0.00 0.00 0.00 0.00 0.02 0.14 0.04 0.02 0.03 0.01 0.01 0.00 0.01 0.04 0.07 0.08 0.06 0.12 0.37 0.48 0.71 0.88 0.60 0.38 0.33 0.37 0.42 0.50 0.83 0.84 0.55 0.77 0.98 0.94 0.84 1.13 1.97 2.14 1.36 0.90 0.94 1.21 1.21 1.09 0.96
0.00 0.00 0.00 0.00 0.00 0.00 0.00 0.00 0.00 0.02 0.00 0.00 0.00 0.00 0.00 0.00 0.00 0.01 0.03 0.05 0.08 0.16 0.38 0.47 0.32 0.27 0.28 0.28 0.16 0.12 0.17 0.29 0.63 0.95 0.69 0.72 0.81 0.76 0.88 0.69 0.82 1.40 1.71 1.55 1.09 1.08 1.34 1.23 1.18
0.00 0.00 0.00 0.00 0.00 0.00 0.00 0.00 0.00 0.00 0.02 0.07 0.01 0.00 0.00 0.00 0.02 0.02 0.04 0.04 0.06 0.08 0.12 0.24 0.13 0.07 0.07 0.10 0.13 0.11 0.16 0.32 1.03 1.33 1.00 0.74 0.78 0.75 0.79 0.74 0.67 0.81 1.47 1.55 1.17 0.82 0.94 1.32 1.29
0.00 0.00 0.00 0.00 0.00 0.00 0.00 0.01 0.02 0.01 0.02 0.06 0.01 0.01 0.00 0.00 0.00 0.00 0.00 0.00 0.03 0.03 0.05 0.23 0.13 0.06 0.05 0.05 0.05 0.07 0.11 0.16 0.50 1.03 0.94 0.74 1.02 0.95 0.80 0.92 0.96 0.83 0.80 1.15 1.13 0.91 0.83 1.30 1.19
0.01 0.00 0.00 0.00 0.00 0.05 0.02 0.01 0.03 0.02 0.00 0.02 0.01 0.00 0.00 0.00 0.01 0.01 0.01 0.00 0.00 0.06 0.08 0.20 0.16 0.16 0.08 0.11 0.15 0.26 0.20 0.14 0.23 0.89 1.22 0.98 0.99 1.17 1.18 1.13 1.25 1.22 1.29 0.95 1.44 1.36 1.24 1.37 1.04
0.00 0.02 0.04 0.03 0.04 0.07 0.01 0.02 0.04 0.03 0.02 0.06 0.08 0.05 0.02 0.02 0.03 0.04 0.02 0.02 0.02 0.02 0.11 0.19 0.15 0.21 0.23 0.27 0.22 0.22 0.29 0.18 0.19 0.51 1.07 1.37 1.23 1.24 1.22 1.20 1.18 1.06 1.09 1.23 1.44 1.79 1.75 1.77 1.53
0.01 0.12 0.26 0.27 0.11 0.05 0.03 0.04 0.06 0.07 0.18 0.31 0.31 0.26 0.14 0.11 0.10 0.09 0.06 0.06 0.07 0.05 0.17 0.19 0.16 0.20 0.23 0.30 0.16 0.19 0.32 0.39 0.42 0.44 0.81 1.32 1.64 1.46 0.96 1.04 1.04 0.95 0.77 0.87 1.17 1.59 1.77 2.11 2.18
0.05 0.18 0.28 0.36 0.16 0.07 0.04 0.04 0.05 0.13 0.20 0.37 0.61 0.47 0.38 0.24 0.11 0.16 0.16 0.18 0.21 0.20 0.22 0.34 0.30 0.37 0.28 0.19 0.25 0.31 0.38 0.46 0.57 0.49 0.71 1.24 1.17 1.01 0.78 0.94 1.09 1.05 1.05 1.05 0.95 1.11 1.13 1.20 1.57
0.22 0.18 0.09 0.38 0.27 0.27 0.10 0.04 0.12 0.23 0.33 0.30 0.43 0.43 0.38 0.32 0.20 0.19 0.21 0.24 0.28 0.30 0.29 0.33 0.30 0.49 0.48 0.43 0.47 0.41 0.34 0.34 0.39 0.45 0.44 0.68 0.89 1.03 0.96 1.08 1.12 1.16 1.08 1.07 1.06 0.99 1.01 1.03 1.04
0.22 0.22 0.45 0.60 0.55 0.34 0.21 0.31 0.99 0.99 0.67 0.95 0.83 0.49 0.36 0.31 0.30 0.27 0.27 0.31 0.32 0.34 0.35 0.49 0.34 0.29 0.45 0.60 0.58 0.39 0.45 0.57 0.46 0.45 0.48 0.62 0.93 1.08 1.24 1.31 1.25 1.27 1.30 1.31 1.29 1.18 1.10 1.20 1.08
0.22 0.41 0.51 0.50 0.20 0.31 0.56 1.40 1.44 1.74 1.12 0.85 0.47 0.37 0.40 0.31 0.37 0.53 0.61 0.51 0.57 0.56 0.54 0.64 0.72 0.79 0.79 0.72 0.58 0.54 0.69 1.02 0.95 0.85 0.77 0.79 1.11 1.38 1.32 1.38 1.59 1.51 1.64 1.65 1.63 1.47 1.32 1.30 1.26
0.18 0.27 0.50 0.77 0.43 0.32 0.53 1.44 1.34 1.22 1.12 0.57 0.10 0.03 0.08 0.24 0.27 0.41 0.95 1.10 1.05 1.05 1.18 1.01 0.92 1.01 1.09 0.96 0.89 1.22 1.47 1.56 1.45 1.46 1.58 1.32 1.12 1.09 1.04 1.21 1.30 1.25 1.46 1.66 1.64 1.53 1.38 1.37 1.53

GFSSGP_prec_precacc_150.txt.gz
Total_Precipitation_Accumulation
0.00 0.00 0.00 0.00 0.00 0.00 0.00 0.00 0.00 0.02 0.04 0.05 0.09 0.11 0.17 0.22 0.39 1.05 1.70 2.97 2.42 1.61 1.10 1.15 1.28 0.66 0.30 0.10 0.03 0.01 0.00 0.01 0.00 0.00 0.00 0.01 0.01 0.00 0.01 0.01 0.02 0.02 0.03 0.04 0.04 0.11 0.12 0.08 0.03
0.00 0.00 0.00 0.00 0.00 0.00 0.00 0.00 0.02 0.06 0.15 0.24 0.22 0.26 0.34 0.60 0.43 0.45 1.02 1.36 1.10 1.06 0.70 1.40 1.48 1.14 0.79 0.44 0.16 0.04 0.01 0.01 0.00 0.00 0.04 0.04 0.04 0.07 0.04 0.03 0.02 0.05 0.07 0.07 0.04 0.10 0.13 0.05 0.01
0.00 0.00 0.00 0.00 0.00 0.00 0.00 0.00 0.01 0.06 0.11 0.15 0.16 0.16 0.26 0.71 1.00 0.69 0.80 1.03 1.33 1.05 0.52 0.92 1.32 1.38 1.02 0.60 0.36 0.16 0.07 0.03 0.01 0.01 0.02 0.01 0.07 0.08 0.16 0.15 0.02 0.03 0.13 0.20 0.17 0.22 0.11 0.02 0.00
0.00 0.00 0.00 0.00 0.00 0.00 0.00 0.03 0.04 0.07 0.12 0.12 0.13 0.24 0.41 0.74 1.03 0.57 0.56 1.14 1.61 1.37 0.98 0.91 1.46 1.78 2.22 1.42 0.76 0.42 0.20 0.05 0.05 0.05 0.02 0.16 0.20 0.30 0.50 0.45 0.23 0.23 0.25 0.35 0.33 0.31 0.07 0.00 0.00
0.00 0.00 0.00 0.00 0.00 0.01 0.00 0.03 0.18 0.34 0.41 0.36 0.17 0.12 0.47 0.66 0.81 1.27 1.53 1.92 2.19 2.24 2.01 1.35 2.11 2.88 4.08 4.60 3.34 2.23 1.26 0.75 0.50 0.50 0.63 0.48 0.43 0.83 0.71 0.47 0.47 0.43 0.38 0.36 0.50 0.36 0.04 0.00 0.00
0.00 0.00 0.00 0.00 0.00 0.00 0.01 0.05 0.16 0.39 0.41 0.23 0.10 0.16 0.84 0.65 0.56 1.22 2.01 2.87 3.51 3.15 2.80 2.71 2.25 2.70 3.63 5.96 6.17 5.52 5.61 3.44 1.61 1.20 1.15 1.16 1.05 0.83 0.53 0.44 0.62 0.40 0.33 0.43 0.30 0.12 0.03 0.00 0.00
0.00 0.00 0.00 0.00 0.00 0.01 0.02 0.15 0.35 0.21 0.08 0.14 0.26 0.53 0.90 0.74 0.71 1.16 1.98 2.73 3.69 5.65 5.53 4.88 3.86 2.99 2.28 2.99 4.30 4.65 4.21 4.54 3.91 2.76 1.81 2.37 1.85 1.28 0.66 0.49 0.63 0.82 0.75 0.57 0.19 0.20 0.23 0.10 0.13
0.00 0.00 0.00 0.00 0.00 0.04 0.09 0.16 0.18 0.08 0.19 0.62 0.28 0.51 1.25 1.25 0.87 1.30 2.79 3.11 4.63 8.06 7.51 5.82 4.85 3.14 1.53 1.90 2.19 2.56 3.88 2.85 2.42 3.25 2.85 2.21 1.64 1.26 1.03 0.89 0.92 0.94 0.86 1.04 1.24 1.04 0.92 0.57 0.37
0.00 0.00 0.00 0.00 0.02 0.13 0.21 0.32 0.22 0.08 0.04 0.30 0.54 0.94 1.18 0.82 0.62 1.06 2.01 3.09 3.79 6.02 6.49 6.29 4.35 3.00 1.52 1.00 1.11 1.12 2.29 2.92 2.49 1.38 2.24 2.27 1.65 1.42 1.38 1.24 1.33 1.62 1.48 1.36 0.91 0.69 0.50 0.43 0.42
0.00 0.00 0.00 0.00 0.01 0.12 0.16 0.03 0.15 0.24 0.16 0.39 0.91 1.20 0.77 0.45 0.61 0.83 0.95 1.52 2.19 3.37 3.57 5.25 4.49 3.10 2.20 1.65 1.18 0.78 1.13 2.06 2.72 1.75 1.18 1.51 1.48 1.23 1.28 1.41 1.36 1.37 1.41 1.13 0.86 0.73 0.56 0.54 0.38
0.00 0.00 0.00 0.00 0.01 0.11 0.03 0.01 0.03 0.08 0.25 0.76 1.55 1.68 0.86 0.56 0.65 0.91 0.82 0.68 0.74 1.24 1.56 2.39 3.63 4.15 3.15 1.92 1.38 0.74 0.86 1.59 2.65 2.40 1.11 1.09 1.26 1.16 0.87 0.79 1.11 1.13 1.46 1.16 1.13 0.80 0.60 0.51 0.40
0.00 0.00 0.00 0.00 0.00 0.02 0.05 0.07 0.06 0.31 0.75 0.42 0.36 0.51 0.68 0.79 0.61 0.65 0.78 0.34 0.37 0.71 0.94 1.85 2.26 2.27 2.58 2.72 1.61 0.83 0.55 1.16 1.90 2.40 1.10 1.05 0.88 1.03 0.61 0.37 0.51 0.75 0.88 1.08 1.53 1.44 1.04 0.96 0.69
0.00 0.00 0.00 0.01 0.01 0.01 0.01 0.06 0.11 0.25 0.10 0.07 0.18 0.29 0.52 0.58 0.45 0.23 0.26 0.24 0.41 0.46 0.69 1.30 1.15 0.91 1.07 1.85 2.46 1.41 0.97 1.13 1.66 2.26 1.11 0.73 0.61 0.73 0.46 0.28 0.34 0.39 0.45 0.68 0.92 1.20 1.20 1.23 1.17
0.00 0.00 0.00 0.02 0.00 0.00 0.00 0.23 0.18 0.54 0.16 0.08 0.05 0.18 0.41 0.34 0.38 0.37 0.32 0.14 0.21 0.38 0.57 0.92 0.74 0.81 0.80 1.09 1.75 2.00 1.40 1.45 1.78 1.84 1.17 0.92 0.75 0.70 0.57 0.38 0.36 0.35 0.39 0.55 0.80 1.16 1.27 1.34 1.52
0.00 0.00 0.00 0.00 0.01 0.01 0.04 0.22 0.14 0.13 0.10 0.06 0.02 0.06 0.16 0.09 0.30 0.27 0.09 0.14 0.22 0.41 0.62 1.01 1.26 0.62 0.82 0.94 1.19 1.68 1.46 1.26 1.60 1.94 1.70 1.17 1.00 0.66 0.71 0.69 0.63 0.51 0.47 0.56 0.84 1.12 1.26 1.05 1.00
0.00 0.00 0.00 0.00 0.01 0.02 0.11 0.51 0.05 0.05 0.03 0.03 0.02 0.03 0.03 0.09 0.10 0.03 0.04 0.09 0.17 0.37 0.45 0.95 1.52 0.94 0.85 0.85 1.02 1.30 1.34 1.22 1.06 1.27 1.57 1.42 1.27 1.11 0.93 0.70 0.77 0.89 0.77 0.68 0.82 1.06 1.61 1.49 1.09
0.00 0.00 0.00 0.00 0.00 0.01 0.05 0.35 0.22 0.07 0.08 0.05 0.01 0.00 0.00 0.00 0.01 0.03 0.04 0.04 0.08 0.22 0.33 0.72 1.02 1.17 1.13 0.91 0.93 0.87 0.86 1.09 0.77 0.89 0.94 1.18 1.67 1.72 1.33 1.24 1.33 1.27 1.29 1.36 1.60 1.80 1.93 1.54 1.22
0.00 0.00 0.00 0.02 0.07 0.00 0.00 0.03 0.16 0.19 0.07 0.04 0.01 0.00 0.00 0.00 0.00 0.03 0.08 0.04 0.04 0.17 0.43 0.85 0.92 1.07 1.07 0.77 0.64 0.61 0.71 0.78 0.83 0.76 0.77 0.97 1.08 1.05 1.14 1.36 1.60 1.59 1.46 1.19 0.99 1.09 1.24 1.23 1.08
0.00 0.00 0.00 0.00 0.00 0.00 0.00 0.00 0.02 0.14 0.04 0.02 0.03 0.01 0.01 0.00 0.01 0.04 0.07 0.08 0.06 0.12 0.37 0.48 0.71 0.88 0.60 0.38 0.33 0.37 0.42 0.50 0.83 0.84 0.55 0.77 0.98 0.94 0.84 1.13 1.97 2.14 1.36 0.90 0.94 1.21 1.21 1.09 0.96
0.00 0.00 0.00 0.00 0.00 0.00 0.00 0.00 0.00 0.02 0.00 0.00 0.00 0.00 0.00 0.00 0.00 0.01 0.03 0.05 0.08 0.16 0.38 0.47 0.32 0.27 0.28 0.28 0.16 0.12 0.17 0.29 0.63 0.95 0.69 0.72 0.81 0.76 0.88 0.69 0.82 1.40 1.71 1.55 1.09 1.08 1.34 1.23 1.18
0.00 0.00 0.00 0.00 0.00 0.00 0.00 0.00 0.00 0.00 0.02 0.07 0.01 0.00 0.00 0.00 0.02 0.02 0.04 0.04 0.06 0.08 0.12 0.24 0.13 0.07 0.07 0.10 0.13 0.11 0.16 0.32 1.03 1.33 1.00 0.74 0.78 0.75 0.79 0.74 0.67 0.81 1.47 1.55 1.17 0.82 0.94 1.33 1.29
0.00 0.00 0.00 0.00 0.00 0.00 0.00 0.01 0.02 0.01 0.02 0.06 0.01 0.01 0.00 0.00 0.00 0.00 0.00 0.00 0.03 0.03 0.05 0.23 0.13 0.06 0.05 0.05 0.05 0.07 0.11 0.16 0.50 1.03 0.94 0.74 1.02 0.95 0.80 0.92 0.96 0.83 0.80 1.15 1.13 0.91 0.83 1.31 1.19
0.01 0.00 0.00 0.00 0.00 0.05 0.02 0.01 0.03 0.02 0.00 0.02 0.01 0.00 0.00 0.00 0.01 0.01 0.01 0.00 0.00 0.06 0.08 0.20 0.16 0.16 0.08 0.11 0.15 0.26 0.20 0.14 0.23 0.89 1.22 0.98 0.99 1.17 1.18 1.13 1.25 1.22 1.29 0.96 1.45 1.36 1.25 1.37 1.05
0.00 0.02 0.04 0.03 0.04 0.07 0.01 0.02 0.04 0.03 0.02 0.06 0.08 0.05 0.02 0.02 0.03 0.04 0.02 0.02 0.02 0.02 0.11 0.19 0.15 0.21 0.23 0.27 0.22 0.22 0.29 0.18 0.19 0.51 1.07 1.37 1.23 1.24 1.22 1.20 1.18 1.06 1.10 1.24 1.45 1.79 1.76 1.77 1.54
0.01 0.12 0.26 0.27 0.11 0.05 0.03 0.04 0.06 0.07 0.18 0.31 0.31 0.26 0.14 0.11 0.10 0.09 0.06 0.06 0.07 0.05 0.17 0.19 0.16 0.20 0.23 0.30 0.16 0.19 0.32 0.39 0.42 0.44 0.81 1.32 1.64 1.46 0.96 1.05 1.04 0.95 0.77 0.88 1.18 1.60 1.79 2.13 2.20
0.05 0.18 0.28 0.36 0.16 0.07 0.04 0.04 0.05 0.13 0.20 0.37 0.61 0.47 0.38 0.24 0.11 0.16 0.16 0.18 0.21 0.20 0.22 0.34 0.30 0.37 0.28 0.19 0.25 0.31 0.38 0.46 0.57 0.49 0.71 1.24 1.17 1.02 0.79 0.96 1.09 1.06 1.07 1.06 0.96 1.12 1.14 1.23 1.61
0.22 0.18 0.09 0.38 0.27 0.27 0.10 0.04 0.12 0.23 0.33 0.30 0.43 0.43 0.38 0.32 0.20 0.19 0.21 0.24 0.28 0.30 0.29 0.33 0.30 0.49 0.48 0.43 0.47 0.41 0.34 0.34 0.39 0.45 0.44 0.68 0.89 1.05 0.98 1.10 1.13 1.16 1.09 1.07 1.07 1.00 1.03 1.07 1.09
0.22 0.22 0.45 0.61 0.55 0.34 0.21 0.31 0.99 0.99 0.67 0.95 0.83 0.49 0.36 0.31 0.30 0.27 0.27 0.31 0.32 0.34 0.35 0.49 0.34 0.29 0.45 0.60 0.58 0.39 0.45 0.57 0.46 0.45 0.48 0.62 0.94 1.09 1.25 1.32 1.25 1.27 1.30 1.31 1.29 1.20 1.12 1.22 1.11
0.22 0.41 0.51 0.51 0.21 0.31 0.56 1.40 1.44 1.74 1.12 0.85 0.47 0.37 0.40 0.31 0.37 0.53 0.61 0.51 0.57 0.56 0.54 0.64 0.72 0.79 0.79 0.72 0.58 0.54 0.69 1.02 0.95 0.85 0.77 0.79 1.11 1.38 1.32 1.39 1.60 1.52 1.65 1.65 1.63 1.48 1.33 1.32 1.28
0.18 0.27 0.50 0.78 0.44 0.32 0.53 1.44 1.34 1.22 1.12 0.57 0.10 0.03 0.08 0.24 0.27 0.41 0.95 1.10 1.05 1.05 1.18 1.01 0.92 1.01 1.09 0.96 0.89 1.22 1.47 1.56 1.45 1.46 1.58 1.32 1.12 1.09 1.04 1.21 1.30 1.25 1.46 1.66 1.65 1.54 1.39 1.39 1.55

GFSSGP_prec_precacc_153.txt.gz
Total_Precipitation_Accumulation
0.00 0.00 0.00 0.00 0.00 0.00 0.00 0.00 0.00 0.02 0.04 0.05 0.09 0.11 0.17 0.22 0.40 1.09 1.73 3.06 2.46 1.62 1.10 1.15 1.28 0.66 0.30 0.10 0.03 0.01 0.00 0.01 0.00 0.00 0.00 0.01 0.01 0.00 0.01 0.01 0.02 0.02 0.03 0.04 0.04 0.11 0.12 0.08 0.03
0.00 0.00 0.00 0.00 0.00 0.00 0.00 0.00 0.02 0.06 0.15 0.24 0.22 0.26 0.34 0.61 0.46 0.55 1.10 1.44 1.14 1.08 0.70 1.40 1.48 1.14 0.79 0.44 0.16 0.04 0.01 0.01 0.00 0.00 0.04 0.04 0.04 0.07 0.04 0.03 0.02 0.05 0.07 0.07 0.04 0.11 0.13 0.05 0.01
0.00 0.00 0.00 0.00 0.00 0.00 0.00 0.00 0.01 0.06 0.11 0.15 0.16 0.16 0.27 0.74 1.03 0.75 0.87 1.05 1.36 1.09 0.52 0.92 1.32 1.39 1.02 0.60 0.36 0.16 0.07 0.03 0.01 0.01 0.02 0.01 0.07 0.08 0.16 0.15 0.02 0.03 0.13 0.20 0.17 0.22 0.12 0.02 0.00
0.00 0.00 0.00 0.00 0.00 0.00 0.00 0.03 0.04 0.07 0.12 0.12 0.13 0.24 0.42 0.76 1.04 0.58 0.60 1.17 1.70 1.42 0.98 0.91 1.46 1.78 2.22 1.42 0.76 0.42 0.20 0.05 0.05 0.05 0.02 0.16 0.20 0.30 0.50 0.45 0.23 0.23 0.25 0.36 0.34 0.32 0.08 0.00 0.00
0.00 0.00 0.00 0.00 0.00 0.01 0.00 0.03 0.18 0.34 0.41 0.36 0.17 0.12 0.48 0.68 0.82 1.28 1.55 1.95 2.26 2.25 2.01 1.35 2.11 2.88 4.08 4.60 3.34 2.23 1.26 0.75 0.50 0.50 0.63 0.48 0.43 0.83 0.71 0.47 0.47 0.43 0.38 0.37 0.54 0.42 0.08 0.01 0.00
0.00 0.00 0.00 0.00 0.00 0.00 0.01 0.05 0.16 0.39 0.41 0.23 0.10 0.16 0.86 0.70 0.58 1.23 2.02 2.87 3.53 3.15 2.80 2.71 2.25 2.70 3.63 5.96 6.17 5.52 5.61 3.44 1.61 1.20 1.15 1.16 1.05 0.83 0.53 0.44 0.62 0.40 0.33 0.43 0.31 0.15 0.08 0.05 0.03
0.00 0.00 0.00 0.00 0.00 0.01 0.02 0.15 0.35 0.21 0.08 0.14 0.26 0.53 0.90 0.75 0.74 1.17 2.00 2.75 3.71 5.65 5.53 4.88 3.86 2.99 2.28 2.99 4.30 4.65 4.21 4.54 3.91 2.76 1.81 2.37 1.85 1.28 0.66 0.49 0.63 0.82 0.75 0.57 0.19 0.20 0.23 0.15 0.17
0.00 0.00 0.00 0.00 0.00 0.04 0.09 0.16 0.18 0.08 0.19 0.62 0.28 0.51 1.25 1.25 0.87 1.32 2.82 3.12 4.63 8.06 7.51 5.82 4.85 3.14 1.53 1.90 2.19 2.56 3.88 2.85 2.42 3.25 2.85 2.21 1.64 1.26 1.03 0.89 0.92 0.94 0.86 1.04 1.24 1.04 0.92 0.59 0.39
0.00 0.00 0.00 0.00 0.02 0.13 0.21 0.32 0.22 0.08 0.04 0.30 0.54 0.94 1.18 0.82 0.62 1.06 2.01 3.09 3.79 6.02 6.49 6.29 4.35 3.00 1.52 1.00 1.11 1.12 2.29 2.92 2.49 1.38 2.24 2.27 1.65 1.42 1.38 1.24 1.33 1.62 1.48 1.36 0.91 0.69 0.50 0.43 0.42
0.00 0.00 0.00 0.00 0.01 0.12 0.16 0.03 0.15 0.24 0.16 0.39 0.91 1.20 0.77 0.45 0.61 0.83 0.95 1.52 2.19 3.37 3.57 5.25 4.49 3.10 2.20 1.65 1.18 0.78 1.13 2.06 2.72 1.75 1.18 1.51 1.48 1.23 1.28 1.41 1.36 1.37 1.41 1.13 0.86 0.73 0.56 0.54 0.39
0.00 0.00 0.00 0.00 0.01 0.11 0.03 0.01 0.03 0.08 0.25 0.76 1.55 1.68 0.86 0.56 0.65 0.91 0.82 0.68 0.74 1.24 1.56 2.39 3.63 4.15 3.15 1.92 1.38 0.74 0.86 1.59 2.65 2.40 1.11 1.09 1.26 1.16 0.87 0.79 1.11 1.13 1.46 1.16 1.13 0.80 0.60 0.51 0.40
0.00 0.00 0.00 0.00 0.00 0.02 0.05 0.07 0.06 0.31 0.75 0.42 0.36 0.51 0.68 0.79 0.61 0.65 0.78 0.34 0.37 0.71 0.94 1.85 2.26 2.27 2.58 2.72 1.61 0.83 0.55 1.16 1.90 2.40 1.10 1.05 0.88 1.03 0.61 0.37 0.51 0.75 0.88 1.08 1.53 1.44 1.04 0.96 0.69
0.00 0.00 0.00 0.01 0.01 0.01 0.01 0.06 0.11 0.25 0.10 0.07 0.18 0.29 0.52 0.58 0.45 0.23 0.26 0.24 0.41 0.46 0.69 1.30 1.15 0.91 1.07 1.85 2.46 1.41 0.97 1.13 1.66 2.26 1.11 0.73 0.61 0.73 0.46 0.28 0.34 0.39 0.45 0.68 0.92 1.20 1.20 1.23 1.17
0.00 0.00 0.00 0.02 0.00 0.00 0.00 0.23 0.18 0.54 0.16 0.08 0.05 0.18 0.41 0.34 0.38 0.37 0.32 0.14 0.21 0.38 0.57 0.92 0.74 0.81 0.80 1.09 1.75 2.00 1.40 1.45 1.78 1.84 1.17 0.92 0.75 0.70 0.57 0.38 0.36 0.35 0.39 0.55 0.80 1.16 1.27 1.34 1.52
0.00 0.00 0.00 0.00 0.01 0.01 0.04 0.22 0.14 0.13 0.10 0.06 0.02 0.06 0.16 0.09 0.30 0.27 0.09 0.14 0.22 0.41 0.62 1.01 1.26 0.62 0.82 0.94 1.19 1.68 1.46 1.26 1.60 1.94 1.70 1.17 1.00 0.66 0.71 0.69 0.63 0.51 0.47 0.56 0.84 1.12 1.26 1.05 1.00
0.00 0.00 0.00 0.00 0.01 0.02 0.11 0.51 0.05 0.05 0.03 0.03 0.02 0.03 0.03 0.09 0.10 0.03 0.04 0.09 0.17 0.37 0.45 0.95 1.52 0.94 0.85 0.85 1.02 1.30 1.34 1.22 1.06 1.27 1.57 1.42 1.27 1.11 0.93 0.70 0.77 0.89 0.77 0.68 0.82 1.06 1.61 1.49 1.09
0.00 0.00 0.00 0.00 0.00 0.01 0.05 0.35 0.22 0.07 0.08 0.05 0.01 0.00 0.00 0.00 0.01 0.03 0.04 0.04 0.08 0.22 0.33 0.72 1.02 1.17 1.13 0.91 0.93 0.87 0.86 1.09 0.77 0.89 0.94 1.18 1.67 1.72 1.33 1.24 1.33 1.27 1.29 1.36 1.60 1.80 1.93 1.54 1.22
0.00 0.00 0.00 0.02 0.07 0.00 0.00 0.03 0.16 0.19 0.07 0.04 0.01 0.00 0.00 0.00 0.00 0.03 0.08 0.04 0.04 0.17 0.43 0.85 0.92 1.07 1.07 0.77 0.64 0.61 0.71 0.78 0.83 0.76 0.77 0.97 1.08 1.05 1.14 1.36 1.60 1.59 1.46 1.19 0.99 1.09 1.24 1.23 1.08
0.00 0.00 0.00 0.00 0.00 0.00 0.00 0.00 0.02 0.14 0.04 0.02 0.03 0.01 0.01 0.00 0.01 0.04 0.07 0.08 0.06 0.12 0.37 0.48 0.71 0.88 0.60 0.38 0.33 0.37 0.42 0.50 0.83 0.84 0.55 0.77 0.98 0.94 0.84 1.13 1.97 2.14 1.36 0.90 0.94 1.21 1.21 1.09 0.96
0.00 0.00 0.00 0.00 0.00 0.00 0.00 0.00 0.00 0.02 0.00 0.00 0.00 0.00 0.00 0.00 0.00 0.01 0.03 0.05 0.08 0.16 0.38 0.47 0.32 0.27 0.28 0.28 0.16 0.12 0.17 0.29 0.63 0.95 0.69 0.72 0.81 0.76 0.88 0.69 0.82 1.40 1.71 1.55 1.09 1.08 1.34 1.23 1.18
0.00 0.00 0.00 0.00 0.00 0.00 0.00 0.00 0.00 0.00 0.02 0.07 0.01 0.00 0.00 0.00 0.02 0.02 0.04 0.04 0.06 0.08 0.12 0.24 0.13 0.07 0.07 0.10 0.13 0.11 0.16 0.32 1.03 1.33 1.00 0.74 0.78 0.75 0.79 0.74 0.67 0.81 1.47 1.55 1.17 0.82 0.94 1.33 1.29
0.00 0.00 0.00 0.00 0.00 0.00 0.00 0.01 0.02 0.01 0.02 0.06 0.01 0.01 0.00 0.00 0.00 0.00 0.00 0.00 0.03 0.03 0.05 0.23 0.13 0.06 0.05 0.05 0.05 0.07 0.11 0.16 0.50 1.03 0.94 0.74 1.02 0.95 0.80 0.92 0.96 0.83 0.81 1.15 1.14 0.92 0.84 1.32 1.20
0.01 0.00 0.00 0.00 0.00 0.05 0.02 0.01 0.03 0.02 0.00 0.02 0.01 0.00 0.00 0.00 0.01 0.01 0.01 0.00 0.00 0.06 0.08 0.20 0.16 0.16 0.08 0.11 0.15 0.26 0.20 0.14 0.23 0.89 1.22 0.98 0.99 1.17 1.18 1.13 1.25 1.22 1.29 0.96 1.45 1.37 1.25 1.38 1.06
0.00 0.02 0.04 0.03 0.04 0.07 0.01 0.02 0.04 0.03 0.02 0.06 0.08 0.05 0.02 0.02 0.03 0.04 0.02 0.02 0.02 0.02 0.11 0.19 0.15 0.21 0.23 0.27 0.22 0.22 0.29 0.18 0.19 0.51 1.07 1.37 1.23 1.24 1.22 1.20 1.18 1.06 1.10 1.24 1.45 1.80 1.77 1.79 1.55
0.01 0.12 0.26 0.27 0.11 0.05 0.03 0.04 0.06 0.07 0.18 0.31 0.31 0.26 0.14 0.11 0.10 0.09 0.06 0.06 0.07 0.05 0.17 0.19 0.16 0.20 0.23 0.30 0.16 0.19 0.32 0.39 0.42 0.44 0.81 1.32 1.64 1.46 0.97 1.05 1.04 0.95 0.78 0.88 1.19 1.61 1.80 2.14 2.22
0.05 0.18 0.28 0.37 0.16 0.07 0.04 0.04 0.05 0.13 0.20 0.37 0.61 0.47 0.38 0.24 0.11 0.16 0.16 0.18 0.21 0.20 0.22 0.34 0.30 0.37 0.28 0.19 0.25 0.31 0.38 0.46 0.57 0.49 0.71 1.24 1.18 1.02 0.79 0.96 1.09 1.06 1.07 1.06 0.97 1.12 1.15 1.24 1.64
0.23 0.18 0.09 0.40 0.32 0.29 0.10 0.04 0.12 0.23 0.33 0.30 0.43 0.43 0.38 0.32 0.20 0.19 0.21 0.24 0.28 0.30 0.29 0.33 0.30 0.49 0.48 0.43 0.47 0.41 0.34 0.34 0.39 0.45 0.44 0.68 0.89 1.05 0.98 1.10 1.13 1.16 1.09 1.07 1.07 1.00 1.03 1.08 1.12
0.24 0.23 0.48 0.72 0.63 0.37 0.21 0.31 0.99 0.99 0.67 0.95 0.83 0.49 0.36 0.31 0.30 0.27 0.27 0.31 0.32 0.34 0.35 0.49 0.34 0.29 0.45 0.60 0.58 0.39 0.45 0.57 0.46 0.45 0.48 0.62 0.94 1.09 1.25 1.32 1.25 1.27 1.31 1.31 1.29 1.20 1.13 1.23 1.12
0.22 0.42 0.60 0.65 0.27 0.34 0.57 1.40 1.44 1.74 1.12 0.85 0.47 0.37 0.40 0.31 0.37 0.53 0.61 0.51 0.57 0.56 0.54 0.64 0.72 0.79 0.79 0.72 0.58 0.54 0.69 1.02 0.95 0.85 0.77 0.79 1.11 1.38 1.32 1.39 1.60 1.52 1.65 1.65 1.63 1.48 1.33 1.32 1.28
0.18 0.27 0.51 0.81 0.47 0.33 0.53 1.44 1.34 1.22 1.12 0.57 0.10 0.03 0.08 0.24 0.27 0.41 0.95 1.10 1.05 1.05 1.18 1.01 0.92 1.01 1.09 0.96 0.89 1.22 1.47 1.56 1.45 1.46 1.58 1.32 1.12 1.09 1.04 1.21 1.30 1.25 1.46 1.66 1.65 1.54 1.40 1.39 1.55

GFSSGP_prec_precacc_156.txt.gz
Total_Precipitation_Accumulation
0.00 0.00 0.00 0.00 0.00 0.00 0.00 0.00 0.00 0.02 0.04 0.05 0.09 0.11 0.17 0.23 0.40 1.09 1.73 3.06 2.49 1.62 1.10 1.15 1.28 0.67 0.30 0.10 0.03 0.01 0.00 0.01 0.00 0.01 0.01 0.01 0.01 0.00 0.01 0.01 0.02 0.02 0.03 0.04 0.04 0.11 0.12 0.08 0.03
0.00 0.00 0.00 0.00 0.00 0.00 0.00 0.00 0.02 0.06 0.15 0.24 0.22 0.26 0.34 0.61 0.46 0.56 1.10 1.45 1.14 1.08 0.70 1.40 1.48 1.14 0.79 0.44 0.16 0.05 0.01 0.01 0.00 0.00 0.04 0.04 0.05 0.07 0.04 0.03 0.02 0.05 0.08 0.09 0.06 0.12 0.13 0.05 0.01
0.00 0.00 0.00 0.00 0.00 0.00 0.00 0.00 0.01 0.06 0.11 0.15 0.16 0.16 0.27 0.75 1.03 0.76 0.89 1.05 1.36 1.09 0.52 0.92 1.33 1.39 1.02 0.61 0.36 0.17 0.07 0.03 0.01 0.01 0.03 0.01 0.08 0.08 0.16 0.15 0.03 0.05 0.17 0.26 0.21 0.27 0.15 0.02 0.00
0.00 0.00 0.00 0.00 0.00 0.00 0.00 0.03 0.04 0.07 0.12 0.12 0.13 0.24 0.42 0.77 1.04 0.58 0.61 1.17 1.70 1.42 0.98 0.91 1.46 1.78 2.22 1.42 0.76 0.42 0.20 0.05 0.05 0.05 0.02 0.17 0.21 0.30 0.51 0.45 0.23 0.24 0.29 0.43 0.42 0.39 0.12 0.03 0.00
0.00 0.00 0.00 0.00 0.00 0.01 0.00 0.03 0.18 0.34 0.41 0.36 0.17 0.12 0.49 0.68 0.82 1.28 1.56 1.95 2.26 2.25 2.01 1.35 2.11 2.88 4.08 4.60 3.34 2.23 1.26 0.75 0.50 0.50 0.63 0.48 0.43 0.83 0.71 0.47 0.47 0.43 0.38 0.38 0.55 0.46 0.13 0.06 0.02
0.00 0.00 0.00 0.00 0.00 0.00 0.01 0.05 0.16 0.39 0.41 0.23 0.10 0.16 0.86 0.70 0.58 1.23 2.02 2.88 3.53 3.15 2.80 2.71 2.25 2.70 3.63 5.96 6.17 5.52 5.61 3.44 1.61 1.20 1.15 1.16 1.05 0.83 0.53 0.44 0.62 0.40 0.33 0.43 0.31 0.15 0.08 0.07 0.09
0.00 0.00 0.00 0.00 0.00 0.01 0.02 0.15 0.35 0.21 0.08 0.14 0.26 0.53 0.90 0.76 0.74 1.18 2.01 2.76 3.71 5.65 5.53 4.88 3.86 2.99 2.28 2.99 4.30 4.65 4.21 4.54 3.91 2.76 1.81 2.37 1.85 1.28 0.66 0.49 0.63 0.82 0.75 0.57 0.19 0.20 0.23 0.15 0.18
0.00 0.00 0.00 0.00 0.00 0.04 0.09 0.16 0.18 0.08 0.19 0.62 0.28 0.51 1.25 1.25 0.88 1.32 2.83 3.13 4.64 8.06 7.51 5.82 4.85 3.14 1.53 1.90 2.19 2.56 3.88 2.85 2.42 3.25 2.85 2.21 1.64 1.26 1.03 0.89 0.92 0.94 0.86 1.04 1.24 1.04 0.92 0.59 0.40
0.00 0.00 0.00 0.00 0.02 0.13 0.21 0.32 0.22 0.08 0.04 0.30 0.54 0.94 1.18 0.82 0.62 1.06 2.01 3.09 3.79 6.02 6.49 6.29 4.35 3.00 1.52 1.00 1.11 1.12 2.29 2.92 2.49 1.38 2.24 2.27 1.65 1.42 1.38 1.24 1.33 1.62 1.48 1.36 0.91 0.69 0.50 0.43 0.42
0.00 0.00 0.00 0.00 0.01 0.12 0.16 0.03 0.15 0.24 0.16 0.39 0.91 1.20 0.77 0.45 0.61 0.83 0.95 1.52 2.19 3.37 3.57 5.25 4.49 3.10 2.20 1.65 1.18 0.78 1.13 2.06 2.72 1.75 1.18 1.51 1.48 1.23 1.28 1.41 1.36 1.37 1.41 1.13 0.86 0.73 0.56 0.54 0.39
0.00 0.00 0.00 0.00 0.01 0.11 0.03 0.01 0.03 0.08 0.25 0.76 1.55 1.68 0.86 0.56 0.65 0.91 0.82 0.68 0.74 1.24 1.56 2.39 3.63 4.15 3.15 1.92 1.38 0.74 0.86 1.59 2.65 2.40 1.11 1.09 1.26 1.16 0.87 0.79 1.11 1.13 1.46 1.16 1.13 0.80 0.60 0.51 0.40
0.00 0.00 0.00 0.00 0.00 0.02 0.05 0.07 0.06 0.31 0.75 0.42 0.36 0.51 0.68 0.79 0.61 0.65 0.78 0.34 0.37 0.71 0.94 1.85 2.26 2.27 2.58 2.72 1.61 0.83 0.55 1.16 1.90 2.40 1.10 1.05 0.88 1.03 0.61 0.37 0.51 0.75 0.88 1.08 1.53 1.44 1.04 0.96 0.69
0.00 0.00 0.00 0.01 0.01 0.01 0.01 0.06 0.11 0.25 0.10 0.07 0.18 0.29 0.52 0.58 0.45 0.23 0.26 0.24 0.41 0.46 0.69 1.30 1.15 0.91 1.07 1.85 2.46 1.41 0.97 1.13 1.66 2.26 1.11 0.73 0.61 0.73 0.46 0.28 0.34 0.39 0.45 0.68 0.92 1.20 1.20 1.23 1.17
0.00 0.00 0.00 0.02 0.00 0.00 0.00 0.23 0.18 0.54 0.16 0.08 0.05 0.18 0.41 0.34 0.38 0.37 0.32 0.14 0.21 0.38 0.57 0.92 0.74 0.81 0.80 1.09 1.75 2.00 1.40 1.45 1.78 1.84 1.17 0.92 0.75 0.70 0.57 0.38 0.36 0.35 0.39 0.55 0.80 1.16 1.27 1.34 1.52
0.00 0.00 0.00 0.00 0.01 0.01 0.04 0.22 0.14 0.13 0.10 0.06 0.02 0.06 0.16 0.09 0.30 0.27 0.09 0.14 0.22 0.41 0.62 1.01 1.26 0.62 0.82 0.94 1.19 1.68 1.46 1.26 1.60 1.94 1.70 1.17 1.00 0.66 0.71 0.69 0.63 0.51 0.47 0.56 0.84 1.12 1.26 1.05 1.00
0.00 0.00 0.00 0.00 0.01 0.02 0.11 0.51 0.05 0.05 0.03 0.03 0.02 0.03 0.03 0.09 0.10 0.03 0.04 0.09 0.17 0.37 0.45 0.95 1.52 0.94 0.85 0.85 1.02 1.30 1.34 1.22 1.06 1.27 1.57 1.42 1.27 1.11 0.93 0.70 0.77 0.89 0.77 0.68 0.82 1.06 1.61 1.49 1.09
0.00 0.00 0.00 0.00 0.00 0.01 0.05 0.35 0.22 0.07 0.08 0.05 0.01 0.00 0.00 0.00 0.01 0.03 0.04 0.04 0.08 0.22 0.33 0.72 1.02 1.17 1.13 0.91 0.93 0.87 0.86 1.09 0.77 0.89 0.94 1.18 1.67 1.72 1.33 1.24 1.33 1.27 1.29 1.36 1.60 1.80 1.93 1.54 1.22
0.00 0.00 0.00 0.02 0.07 0.00 0.00 0.03 0.16 0.19 0.07 0.04 0.01 0.00 0.00 0.00 0.00 0.03 0.08 0.04 0.04 0.17 0.43 0.85 0.92 1.07 1.07 0.77 0.64 0.61 0.71 0.78 0.83 0.76 0.77 0.97 1.08 1.05 1.14 1.36 1.60 1.59 1.46 1.19 0.99 1.09 1.24 1.23 1.08
0.00 0.00 0.00 0.00 0.00 0.00 0.00 0.00 0.02 0.14 0.04 0.02 0.03 0.01 0.01 0.00 0.01 0.04 0.07 0.08 0.06 0.12 0.37 0.48 0.71 0.88 0.60 0.38 0.33 0.37 0.42 0.50 0.83 0.84 0.55 0.77 0.98 0.94 0.84 1.13 1.97 2.14 1.36 0.90 0.94 1.21 1.21 1.09 0.96
0.00 0.00 0.00 0.00 0.00 0.00 0.00 0.00 0.00 0.02 0.00 0.00 0.00 0.00 0.00 0.00 0.00 0.01 0.03 0.05 0.08 0.16 0.38 0.47 0.32 0.27 0.28 0.28 0.16 0.12 0.17 0.29 0.63 0.95 0.69 0.72 0.81 0.76 0.88 0.69 0.82 1.40 1.71 1.55 1.09 1.08 1.34 1.24 1.18
0.00 0.00 0.00 0.00 0.00 0.00 0.00 0.00 0.00 0.00 0.02 0.07 0.01 0.00 0.00 0.00 0.02 0.02 0.04 0.04 0.06 0.08 0.12 0.24 0.13 0.07 0.07 0.10 0.13 0.11 0.16 0.32 1.03 1.33 1.00 0.74 0.78 0.75 0.79 0.74 0.67 0.81 1.47 1.55 1.17 0.82 0.95 1.34 1.29
0.00 0.00 0.00 0.00 0.00 0.00 0.00 0.01 0.02 0.01 0.02 0.06 0.01 0.01 0.00 0.00 0.00 0.00 0.00 0.00 0.03 0.03 0.05 0.23 0.13 0.06 0.05 0.05 0.05 0.07 0.11 0.16 0.50 1.03 0.94 0.74 1.02 0.95 0.80 0.92 0.96 0.83 0.81 1.15 1.14 0.92 0.84 1.33 1.21
0.01 0.00 0.00 0.00 0.00 0.05 0.02 0.01 0.03 0.02 0.00 0.02 0.01 0.00 0.00 0.00 0.01 0.01 0.01 0.00 0.00 0.06 0.08 0.20 0.16 0.16 0.08 0.11 0.15 0.26 0.20 0.14 0.23 0.89 1.22 0.98 0.99 1.17 1.18 1.13 1.25 1.22 1.29 0.96 1.45 1.37 1.26 1.39 1.07
0.00 0.02 0.04 0.03 0.04 0.07 0.01 0.02 0.04 0.03 0.02 0.06 0.08 0.05 0.02 0.02 0.03 0.04 0.02 0.02 0.02 0.02 0.11 0.19 0.15 0.21 0.23 0.27 0.22 0.22 0.29 0.18 0.19 0.51 1.07 1.37 1.23 1.24 1.22 1.20 1.18 1.06 1.10 1.25 1.45 1.81 1.77 1.79 1.56
0.01 0.12 0.26 0.27 0.11 0.05 0.03 0.04 0.06 0.07 0.18 0.31 0.31 0.26 0.14 0.11 0.10 0.09 0.06 0.06 0.07 0.05 0.17 0.19 0.16 0.20 0.23 0.30 0.16 0.19 0.32 0.39 0.42 0.44 0.81 1.32 1.64 1.46 0.97 1.05 1.04 0.95 0.78 0.88 1.19 1.61 1.80 2.14 2.22
0.05 0.18 0.28 0.37 0.16 0.07 0.04 0.04 0.05 0.13 0.20 0.37 0.61 0.47 0.38 0.24 0.11 0.16 0.16 0.18 0.21 0.20 0.22 0.34 0.30 0.37 0.28 0.19 0.25 0.31 0.38 0.46 0.57 0.49 0.71 1.24 1.18 1.02 0.79 0.96 1.09 1.06 1.07 1.06 0.97 1.13 1.15 1.25 1.64
0.23 0.18 0.09 0.41 0.34 0.30 0.10 0.04 0.12 0.23 0.33 0.30 0.43 0.43 0.38 0.32 0.20 0.19 0.21 0.24 0.28 0.30 0.29 0.33 0.30 0.49 0.48 0.43 0.47 0.41 0.34 0.34 0.39 0.45 0.44 0.68 0.89 1.05 0.98 1.10 1.13 1.16 1.09 1.07 1.07 1.00 1.03 1.08 1.12
0.24 0.23 0.52 0.90 0.74 0.39 0.21 0.31 0.99 0.99 0.67 0.95 0.83 0.49 0.36 0.31 0.30 0.27 0.27 0.31 0.32 0.34 0.35 0.49 0.34 0.29 0.45 0.60 0.58 0.39 0.45 0.57 0.46 0.45 0.48 0.62 0.94 1.09 1.25 1.32 1.25 1.27 1.31 1.31 1.29 1.20 1.13 1.23 1.12
0.26 0.46 0.79 0.81 0.40 0.42 0.62 1.41 1.44 1.74 1.12 0.85 0.47 0.37 0.40 0.31 0.37 0.53 0.61 0.51 0.57 0.56 0.54 0.64 0.72 0.79 0.79 0.72 0.58 0.54 0.69 1.02 0.95 0.85 0.77 0.79 1.11 1.38 1.32 1.39 1.60 1.52 1.65 1.65 1.63 1.48 1.33 1.32 1.28
0.20 0.34 0.68 1.03 0.64 0.42 0.60 1.46 1.34 1.22 1.12 0.57 0.10 0.03 0.08 0.24 0.27 0.41 0.95 1.10 1.05 1.05 1.18 1.01 0.92 1.01 1.09 0.96 0.89 1.22 1.47 1.56 1.45 1.46 1.58 1.32 1.12 1.09 1.04 1.21 1.30 1.25 1.46 1.66 1.65 1.54 1.40 1.39 1.55